| time (UTC) | temp F | wind direction | speed MPH | gust MPH | rain 1hr in | rain 24hr in | rain mn in | humidity % | barometer mb |
| 20260503025458 | 42 | 41 | 4.0 | 10.0 | 0.00 | 0.00 | 0.00 | 91 | 1019.3 |
| 20260503025355 | 42 | 57 | 4.0 | 10.0 | 0.00 | 0.00 | 0.00 | 91 | 1019.3 |
| 20260503025257 | 42 | 42 | 4.0 | 10.0 | 0.00 | 0.00 | 0.00 | 91 | 1019.3 |
| 20260503025157 | 42 | 57 | 4.0 | 10.0 | 0.00 | 0.00 | 0.00 | 92 | 1019.4 |
| 20260503025051 | 42 | 22 | 4.0 | 10.0 | 0.00 | 0.00 | 0.00 | 92 | 1019.3 |
| 20260503024949 | 42 | 44 | 4.0 | 10.0 | 0.00 | 0.00 | 0.00 | 92 | 1019.3 |
| 20260503024852 | 42 | 30 | 4.0 | 10.0 | 0.00 | 0.00 | 0.00 | 91 | 1019.3 |
| 20260503024750 | 42 | 69 | 4.0 | 10.0 | 0.00 | 0.00 | 0.00 | 91 | 1019.3 |
| 20260503024651 | 42 | 70 | 4.0 | 10.0 | 0.00 | 0.00 | 0.00 | 91 | 1019.4 |
| 20260503024537 | 43 | 350 | 4.0 | 10.0 | 0.00 | 0.00 | 0.00 | 91 | 1019.3 |
| 20260503024438 | 43 | 67 | 4.0 | 10.0 | 0.00 | 0.00 | 0.00 | 91 | 1019.3 |
| 20260503024413 | 43 | 60 | 3.0 | 10.0 | 0.00 | 0.00 | 0.00 | 91 | 1019.3 |
| 20260503024401 | 43 | 56 | 4.0 | 10.0 | 0.00 | 0.00 | 0.00 | 91 | 1019.3 |
| 20260503024136 | 43 | 38 | 3.0 | 10.0 | 0.00 | 0.00 | 0.00 | 91 | 1019.3 |
| 20260503024102 | 43 | 46 | 3.0 | 9.0 | 0.00 | 0.00 | 0.00 | 91 | 1019.3 |
| 20260503024052 | 43 | 60 | 3.0 | 10.0 | 0.00 | 0.00 | 0.00 | 91 | 1019.3 |
| 20260503023900 | 43 | 37 | 3.0 | 10.0 | 0.00 | 0.00 | 0.00 | 91 | 1019.3 |
| 20260503023850 | 43 | 5 | 3.0 | 10.0 | 0.00 | 0.00 | 0.00 | 91 | 1019.3 |
| 20260503023631 | 43 | 36 | 3.0 | 10.0 | 0.00 | 0.00 | 0.00 | 91 | 1019.3 |
| 20260503023523 | 43 | 5 | 3.0 | 10.0 | 0.00 | 0.00 | 0.00 | 91 | 1019.3 |
| 20260503023425 | 43 | 62 | 4.0 | 10.0 | 0.00 | 0.00 | 0.00 | 91 | 1019.3 |
| 20260503023324 | 43 | 32 | 4.0 | 10.0 | 0.00 | 0.00 | 0.00 | 91 | 1019.4 |
| 20260503023222 | 43 | 38 | 4.0 | 10.0 | 0.00 | 0.00 | 0.00 | 91 | 1019.4 |
| 20260503023151 | 43 | 44 | 4.0 | 10.0 | 0.00 | 0.00 | 0.00 | 91 | 1019.3 |
| 20260503023141 | 43 | 50 | 4.0 | 10.0 | 0.00 | 0.00 | 0.00 | 91 | 1019.3 |
| 20260503022950 | 43 | 25 | 4.0 | 11.0 | 0.00 | 0.00 | 0.00 | 91 | 1019.3 |
| 20260503022938 | 43 | 55 | 4.0 | 10.0 | 0.00 | 0.00 | 0.00 | 91 | 1019.3 |
| 20260503022714 | 43 | 48 | 4.0 | 11.0 | 0.00 | 0.00 | 0.00 | 91 | 1019.3 |
| 20260503022644 | 43 | 59 | 4.0 | 11.0 | 0.00 | 0.00 | 0.00 | 91 | 1019.2 |
| 20260503022633 | 43 | 64 | 4.0 | 11.0 | 0.00 | 0.00 | 0.00 | 91 | 1019.2 |
| 20260503022409 | 43 | 12 | 4.0 | 11.0 | 0.00 | 0.00 | 0.00 | 91 | 1019.3 |
| 20260503022310 | 43 | 46 | 4.0 | 11.0 | 0.00 | 0.00 | 0.00 | 90 | 1019.2 |
| 20260503022244 | 43 | 29 | 4.0 | 11.0 | 0.00 | 0.00 | 0.00 | 90 | 1019.1 |
| 20260503022233 | 43 | 50 | 4.0 | 11.0 | 0.00 | 0.00 | 0.00 | 90 | 1019.1 |
| 20260503022033 | 43 | 42 | 4.0 | 11.0 | 0.00 | 0.00 | 0.00 | 90 | 1019.1 |
| 20260503022024 | 43 | 64 | 4.0 | 11.0 | 0.00 | 0.00 | 0.00 | 90 | 1019.1 |
| 20260503021804 | 43 | 36 | 4.0 | 9.0 | 0.00 | 0.00 | 0.00 | 90 | 1019.1 |
| 20260503021705 | 43 | 40 | 4.0 | 9.0 | 0.00 | 0.00 | 0.00 | 90 | 1019.1 |
| 20260503021603 | 43 | 72 | 4.0 | 9.0 | 0.00 | 0.00 | 0.00 | 90 | 1019.0 |
| 20260503021453 | 43 | 48 | 4.0 | 9.0 | 0.00 | 0.00 | 0.00 | 90 | 1019.1 |
| 20260503021353 | 43 | 56 | 4.0 | 9.0 | 0.00 | 0.00 | 0.00 | 90 | 1019.1 |
| 20260503021253 | 43 | 0 | 4.0 | 9.0 | 0.00 | 0.00 | 0.00 | 90 | 1019.0 |
| 20260503021153 | 43 | 32 | 4.0 | 9.0 | 0.00 | 0.00 | 0.00 | 90 | 1018.9 |
| 20260503021053 | 43 | 57 | 4.0 | 11.0 | 0.00 | 0.00 | 0.00 | 90 | 1019.0 |
| 20260503020947 | 43 | 48 | 4.0 | 12.0 | 0.00 | 0.00 | 0.00 | 90 | 1019.0 |
| 20260503020846 | 43 | 38 | 5.0 | 12.0 | 0.00 | 0.00 | 0.00 | 90 | 1018.9 |
| 20260503020747 | 43 | 18 | 5.0 | 12.0 | 0.00 | 0.00 | 0.00 | 90 | 1018.9 |
| 20260503020646 | 43 | 49 | 5.0 | 12.0 | 0.00 | 0.00 | 0.00 | 90 | 1018.9 |
| 20260503020547 | 43 | 41 | 5.0 | 12.0 | 0.00 | 0.00 | 0.00 | 90 | 1018.9 |
| 20260503020441 | 43 | 47 | 5.0 | 12.0 | 0.00 | 0.00 | 0.00 | 90 | 1018.9 |
| 20260503020341 | 43 | 63 | 5.0 | 12.0 | 0.00 | 0.00 | 0.00 | 90 | 1018.9 |
| 20260503020241 | 43 | 49 | 5.0 | 12.0 | 0.00 | 0.00 | 0.00 | 90 | 1018.8 |
| 20260503020218 | 43 | 46 | 5.0 | 12.0 | 0.00 | 0.00 | 0.00 | 90 | 1018.8 |
| 20260503020207 | 43 | 40 | 5.0 | 12.0 | 0.00 | 0.00 | 0.00 | 90 | 1018.9 |
| 20260503015928 | 43 | 53 | 5.0 | 12.0 | 0.00 | 0.00 | 0.00 | 90 | 1018.8 |
| 20260503015827 | 43 | 45 | 5.0 | 12.0 | 0.00 | 0.00 | 0.00 | 90 | 1018.8 |
| 20260503015728 | 43 | 26 | 4.0 | 12.0 | 0.00 | 0.00 | 0.00 | 90 | 1018.8 |
| 20260503015700 | 43 | 40 | 5.0 | 12.0 | 0.00 | 0.00 | 0.00 | 89 | 1018.8 |
| 20260503015648 | 43 | 50 | 5.0 | 12.0 | 0.00 | 0.00 | 0.00 | 90 | 1018.8 |
| 20260503015429 | 43 | 56 | 5.0 | 12.0 | 0.00 | 0.00 | 0.00 | 89 | 1018.7 |
| 20260503015351 | 43 | 45 | 5.0 | 14.0 | 0.00 | 0.00 | 0.00 | 89 | 1018.7 |
| 20260503015340 | 43 | 341 | 5.0 | 12.0 | 0.00 | 0.00 | 0.00 | 90 | 1018.7 |
| 20260503015317 | 43 | 90 | 5.0 | 12.0 | 0.00 | 0.00 | 0.00 | 90 | 1018.7 |
| 20260503015153 | 43 | 30 | 5.0 | 12.0 | 0.00 | 0.00 | 0.00 | 90 | 1018.7 |
| 20260503014928 | 43 | 46 | 5.0 | 14.0 | 0.00 | 0.00 | 0.00 | 89 | 1018.7 |
| 20260503014830 | 43 | 44 | 5.0 | 14.0 | 0.00 | 0.00 | 0.00 | 89 | 1018.7 |
| 20260503014727 | 43 | 65 | 5.0 | 14.0 | 0.00 | 0.00 | 0.00 | 89 | 1018.7 |
| 20260503014628 | 43 | 25 | 5.0 | 14.0 | 0.00 | 0.00 | 0.00 | 89 | 1018.7 |
| 20260503014602 | 44 | 55 | 5.0 | 14.0 | 0.00 | 0.00 | 0.00 | 89 | 1018.7 |
| 20260503014549 | 44 | 43 | 5.0 | 14.0 | 0.00 | 0.00 | 0.00 | 89 | 1018.8 |
| 20260503014329 | 44 | 17 | 5.0 | 14.0 | 0.00 | 0.00 | 0.00 | 89 | 1018.7 |
| 20260503014224 | 44 | 52 | 5.0 | 14.0 | 0.00 | 0.00 | 0.00 | 89 | 1018.7 |
| 20260503014123 | 44 | 66 | 5.0 | 14.0 | 0.00 | 0.00 | 0.00 | 89 | 1018.8 |
| 20260503014024 | 44 | 66 | 5.0 | 11.0 | 0.00 | 0.00 | 0.00 | 89 | 1018.7 |
| 20260503013924 | 44 | 63 | 5.0 | 11.0 | 0.00 | 0.00 | 0.00 | 89 | 1018.8 |
| 20260503013825 | 44 | 46 | 6.0 | 11.0 | 0.00 | 0.00 | 0.00 | 89 | 1018.8 |
| 20260503013725 | 44 | 57 | 5.0 | 14.0 | 0.00 | 0.00 | 0.00 | 89 | 1018.8 |
| 20260503013625 | 44 | 51 | 6.0 | 14.0 | 0.00 | 0.00 | 0.00 | 89 | 1018.8 |
| 20260503013523 | 44 | 57 | 5.0 | 14.0 | 0.00 | 0.00 | 0.00 | 89 | 1018.8 |
| 20260503013423 | 44 | 28 | 6.0 | 14.0 | 0.00 | 0.00 | 0.00 | 89 | 1018.8 |
| 20260503013323 | 44 | 40 | 6.0 | 14.0 | 0.00 | 0.00 | 0.00 | 89 | 1018.8 |
| 20260503013253 | 44 | 72 | 6.0 | 14.0 | 0.00 | 0.00 | 0.00 | 89 | 1018.8 |
| 20260503013242 | 44 | 31 | 6.0 | 14.0 | 0.00 | 0.00 | 0.00 | 89 | 1018.8 |
| 20260503013019 | 44 | 55 | 6.0 | 14.0 | 0.00 | 0.00 | 0.00 | 89 | 1018.8 |
| 20260503012922 | 44 | 47 | 5.0 | 14.0 | 0.00 | 0.00 | 0.00 | 89 | 1018.7 |
| 20260503012821 | 44 | 37 | 5.0 | 14.0 | 0.00 | 0.00 | 0.00 | 89 | 1018.7 |
| 20260503012720 | 44 | 50 | 5.0 | 12.0 | 0.00 | 0.00 | 0.00 | 89 | 1018.6 |
| 20260503012622 | 44 | 54 | 5.0 | 12.0 | 0.00 | 0.00 | 0.00 | 89 | 1018.6 |
| 20260503012552 | 44 | 56 | 5.0 | 13.0 | 0.00 | 0.00 | 0.00 | 88 | 1018.6 |
| 20260503012539 | 44 | 40 | 5.0 | 12.0 | 0.00 | 0.00 | 0.00 | 88 | 1018.6 |
| 20260503012314 | 44 | 50 | 5.0 | 13.0 | 0.00 | 0.00 | 0.00 | 88 | 1018.6 |
| 20260503012216 | 44 | 46 | 6.0 | 13.0 | 0.00 | 0.00 | 0.00 | 88 | 1018.6 |
| 20260503012138 | 44 | 57 | 6.0 | 15.0 | 0.00 | 0.00 | 0.00 | 88 | 1018.6 |
| 20260503012132 | 44 | 51 | 6.0 | 15.0 | 0.00 | 0.00 | 0.00 | 88 | 1018.5 |
| 20260503012118 | 44 | 36 | 6.0 | 15.0 | 0.00 | 0.00 | 0.00 | 88 | 1018.6 |
| 20260503012053 | 44 | 67 | 6.0 | 15.0 | 0.00 | 0.00 | 0.00 | 88 | 1018.5 |
| 20260503011708 | 44 | 35 | 7.0 | 15.0 | 0.00 | 0.00 | 0.00 | 88 | 1018.5 |
| 20260503011609 | 44 | 46 | 6.0 | 15.0 | 0.00 | 0.00 | 0.00 | 88 | 1018.5 |
| 20260503011504 | 44 | 47 | 7.0 | 15.0 | 0.00 | 0.00 | 0.00 | 88 | 1018.5 |
| 20260503011402 | 44 | 57 | 6.0 | 15.0 | 0.00 | 0.00 | 0.00 | 88 | 1018.5 |
| 20260503011302 | 44 | 50 | 7.0 | 15.0 | 0.00 | 0.00 | 0.00 | 88 | 1018.5 |
| 20260503011239 | 44 | 57 | 6.0 | 18.0 | 0.00 | 0.00 | 0.00 | 88 | 1018.5 |
| 20260503011226 | 44 | 75 | 6.0 | 14.0 | 0.00 | 0.00 | 0.00 | 88 | 1018.5 |
| 20260503011001 | 44 | 61 | 6.0 | 18.0 | 0.00 | 0.00 | 0.00 | 87 | 1018.4 |
| 20260503010935 | 44 | 51 | 6.0 | 18.0 | 0.00 | 0.00 | 0.00 | 87 | 1018.4 |
| 20260503010925 | 44 | 63 | 6.0 | 18.0 | 0.00 | 0.00 | 0.00 | 87 | 1018.4 |
| 20260503010701 | 44 | 62 | 6.0 | 18.0 | 0.00 | 0.00 | 0.00 | 87 | 1018.4 |
| 20260503010601 | 44 | 55 | 6.0 | 18.0 | 0.00 | 0.00 | 0.00 | 87 | 1018.4 |
| 20260503010544 | 44 | 49 | 6.0 | 18.0 | 0.00 | 0.00 | 0.00 | 87 | 1018.4 |
| 20260503010531 | 44 | 70 | 6.0 | 18.0 | 0.00 | 0.00 | 0.00 | 87 | 1018.4 |
| 20260503010302 | 44 | 71 | 6.0 | 18.0 | 0.00 | 0.00 | 0.00 | 87 | 1018.4 |
| 20260503010201 | 44 | 42 | 6.0 | 18.0 | 0.00 | 0.00 | 0.00 | 87 | 1018.2 |
| 20260503010137 | 44 | 30 | 6.0 | 14.0 | 0.00 | 0.00 | 0.00 | 87 | 1018.4 |
| 20260503010124 | 44 | 51 | 6.0 | 14.0 | 0.00 | 0.00 | 0.00 | 87 | 1018.2 |
| 20260503005903 | 44 | 60 | 7.0 | 14.0 | 0.00 | 0.00 | 0.00 | 87 | 1018.2 |
| 20260503005751 | 45 | 346 | 7.0 | 14.0 | 0.00 | 0.00 | 0.00 | 87 | 1018.2 |
| 20260503005723 | 45 | 87 | 7.0 | 14.0 | 0.00 | 0.00 | 0.00 | 88 | 1018.1 |
| 20260503005712 | 45 | 81 | 7.0 | 14.0 | 0.00 | 0.00 | 0.00 | 87 | 1018.1 |
| 20260503005449 | 45 | 37 | 6.0 | 14.0 | 0.00 | 0.00 | 0.00 | 88 | 1018.2 |
| 20260503005350 | 45 | 44 | 6.0 | 14.0 | 0.00 | 0.00 | 0.00 | 88 | 1018.2 |
| 20260503005322 | 45 | 84 | 6.0 | 14.0 | 0.00 | 0.00 | 0.00 | 88 | 1018.2 |
| 20260503005311 | 45 | 5 | 6.0 | 14.0 | 0.00 | 0.00 | 0.00 | 88 | 1018.1 |
| 20260503005050 | 45 | 84 | 6.0 | 14.0 | 0.00 | 0.00 | 0.00 | 88 | 1018.2 |
| 20260503004950 | 45 | 36 | 6.0 | 14.0 | 0.00 | 0.00 | 0.00 | 88 | 1018.2 |
| 20260503004849 | 45 | 21 | 5.0 | 14.0 | 0.00 | 0.00 | 0.00 | 88 | 1018.2 |
| 20260503004751 | 45 | 69 | 5.0 | 14.0 | 0.00 | 0.00 | 0.00 | 88 | 1018.4 |
| 20260503004649 | 45 | 37 | 5.0 | 12.0 | 0.00 | 0.00 | 0.00 | 88 | 1018.2 |
| 20260503004550 | 45 | 13 | 5.0 | 12.0 | 0.00 | 0.00 | 0.00 | 88 | 1018.2 |
| 20260503004450 | 45 | 40 | 5.0 | 12.0 | 0.00 | 0.00 | 0.00 | 88 | 1018.2 |
| 20260503004351 | 45 | 43 | 5.0 | 12.0 | 0.00 | 0.00 | 0.00 | 88 | 1018.1 |
| 20260503004249 | 45 | 45 | 5.0 | 12.0 | 0.00 | 0.00 | 0.00 | 88 | 1018.1 |
| 20260503004220 | 45 | 38 | 6.0 | 14.0 | 0.00 | 0.00 | 0.00 | 88 | 1018.1 |
| 20260503004209 | 45 | 32 | 5.0 | 12.0 | 0.00 | 0.00 | 0.00 | 88 | 1018.2 |
| 20260503003944 | 45 | 55 | 6.0 | 14.0 | 0.00 | 0.00 | 0.00 | 87 | 1018.1 |
| 20260503003846 | 45 | 10 | 6.0 | 14.0 | 0.00 | 0.00 | 0.00 | 88 | 1018.1 |
| 20260503003815 | 45 | 53 | 6.0 | 14.0 | 0.00 | 0.00 | 0.00 | 87 | 1018.0 |
| 20260503003810 | 45 | 41 | 6.0 | 14.0 | 0.00 | 0.00 | 0.00 | 87 | 1017.9 |
| 20260503003754 | 45 | 350 | 6.0 | 14.0 | 0.00 | 0.00 | 0.00 | 88 | 1018.1 |
| 20260503003728 | 45 | 63 | 6.0 | 14.0 | 0.00 | 0.00 | 0.00 | 88 | 1018.0 |
| 20260503003345 | 45 | 24 | 6.0 | 14.0 | 0.00 | 0.00 | 0.00 | 87 | 1017.9 |
| 20260503003245 | 45 | 53 | 6.0 | 14.0 | 0.00 | 0.00 | 0.00 | 87 | 1017.9 |
| 20260503003217 | 45 | 38 | 6.0 | 13.0 | 0.00 | 0.00 | 0.00 | 87 | 1017.9 |
| 20260503003205 | 45 | 9 | 6.0 | 14.0 | 0.00 | 0.00 | 0.00 | 87 | 1017.9 |
| 20260503002942 | 45 | 5 | 6.0 | 13.0 | 0.00 | 0.00 | 0.00 | 87 | 1017.8 |
| 20260503002841 | 45 | 349 | 6.0 | 13.0 | 0.00 | 0.00 | 0.00 | 87 | 1017.9 |
| 20260503002743 | 45 | 37 | 6.0 | 13.0 | 0.00 | 0.00 | 0.00 | 87 | 1017.8 |
| 20260503002641 | 45 | 47 | 6.0 | 13.0 | 0.00 | 0.00 | 0.00 | 87 | 1017.8 |
| 20260503002542 | 45 | 34 | 6.0 | 13.0 | 0.00 | 0.00 | 0.00 | 87 | 1017.8 |
| 20260503002442 | 45 | 17 | 6.0 | 13.0 | 0.00 | 0.00 | 0.00 | 86 | 1017.8 |
| 20260503002339 | 45 | 61 | 6.0 | 14.0 | 0.00 | 0.00 | 0.00 | 86 | 1017.8 |
| 20260503002240 | 45 | 355 | 6.0 | 14.0 | 0.00 | 0.00 | 0.00 | 86 | 1017.9 |
| 20260503002139 | 45 | 28 | 6.0 | 15.0 | 0.00 | 0.00 | 0.00 | 86 | 1017.8 |
| 20260503002117 | 45 | 51 | 6.0 | 15.0 | 0.00 | 0.00 | 0.00 | 86 | 1017.8 |
| 20260503002104 | 45 | 0 | 6.0 | 15.0 | 0.00 | 0.00 | 0.00 | 86 | 1017.8 |
| 20260503001837 | 45 | 32 | 6.0 | 15.0 | 0.00 | 0.00 | 0.00 | 86 | 1017.8 |
| 20260503001738 | 45 | 91 | 6.0 | 15.0 | 0.00 | 0.00 | 0.00 | 86 | 1017.9 |
| 20260503001659 | 45 | 10 | 6.0 | 15.0 | 0.00 | 0.00 | 0.00 | 85 | 1017.9 |
| 20260503001655 | 46 | 53 | 6.0 | 15.0 | 0.00 | 0.00 | 0.00 | 85 | 1017.9 |
| 20260503001641 | 45 | 38 | 6.0 | 15.0 | 0.00 | 0.00 | 0.00 | 85 | 1017.9 |
| 20260503001634 | 46 | 28 | 6.0 | 16.0 | 0.00 | 0.00 | 0.00 | 85 | 1018.0 |
| 20260503001607 | 45 | 25 | 6.0 | 15.0 | 0.00 | 0.00 | 0.00 | 85 | 1017.8 |
| 20260503001545 | 45 | 355 | 6.0 | 15.0 | 0.00 | 0.00 | 0.00 | 85 | 1018.0 |
| 20260503001111 | 46 | 323 | 6.0 | 16.0 | 0.00 | 0.00 | 0.00 | 84 | 1018.0 |
| 20260503001101 | 45 | 10 | 7.0 | 16.0 | 0.00 | 0.00 | 0.00 | 84 | 1017.9 |
| 20260503000839 | 46 | 13 | 6.0 | 16.0 | 0.00 | 0.00 | 0.00 | 83 | 1018.0 |
| 20260503000738 | 46 | 329 | 6.0 | 16.0 | 0.00 | 0.00 | 0.00 | 84 | 1017.9 |
| 20260503000637 | 46 | 15 | 6.0 | 16.0 | 0.00 | 0.00 | 0.00 | 83 | 1017.9 |
| 20260503000537 | 46 | 355 | 7.0 | 16.0 | 0.00 | 0.00 | 0.00 | 83 | 1017.9 |
| 20260503000439 | 46 | 57 | 6.0 | 16.0 | 0.00 | 0.00 | 0.00 | 82 | 1017.9 |
| 20260503000347 | 46 | 62 | 6.0 | 14.0 | 0.00 | 0.00 | 0.00 | 81 | 1017.9 |
| 20260503000337 | 46 | 329 | 7.0 | 16.0 | 0.00 | 0.00 | 0.00 | 82 | 1017.9 |
| 20260503000330 | 46 | 40 | 6.0 | 13.0 | 0.00 | 0.00 | 0.00 | 81 | 1017.7 |
| 20260503000325 | 46 | 19 | 6.0 | 13.0 | 0.00 | 0.00 | 0.00 | 80 | 1017.8 |
| 20260503000308 | 46 | 308 | 6.0 | 16.0 | 0.00 | 0.00 | 0.00 | 81 | 1017.8 |
| 20260503000117 | 46 | 22 | 6.0 | 14.0 | 0.00 | 0.00 | 0.00 | 81 | 1017.8 |
| 20260502235725 | 46 | 26 | 5.0 | 13.0 | 0.00 | 0.00 | 0.00 | 80 | 1017.7 |
| 20260502235636 | 47 | 33 | 5.0 | 13.0 | 0.00 | 0.00 | 0.00 | 79 | 1017.7 |
| 20260502235527 | 47 | 28 | 5.0 | 13.0 | 0.00 | 0.00 | 0.00 | 79 | 1017.7 |
| 20260502235425 | 47 | 15 | 6.0 | 13.0 | 0.00 | 0.00 | 0.00 | 79 | 1017.7 |
| 20260502235325 | 47 | 9 | 6.0 | 16.0 | 0.00 | 0.00 | 0.00 | 79 | 1017.8 |
| 20260502235259 | 47 | 0 | 6.0 | 16.0 | 0.00 | 0.00 | 0.00 | 78 | 1017.7 |
| 20260502235248 | 47 | 302 | 6.0 | 16.0 | 0.00 | 0.00 | 0.00 | 79 | 1017.7 |
| 20260502235026 | 47 | 314 | 7.0 | 16.0 | 0.00 | 0.00 | 0.00 | 77 | 1017.7 |
| 20260502234925 | 47 | 0 | 7.0 | 25.0 | 0.00 | 0.00 | 0.00 | 77 | 1017.7 |
| 20260502234826 | 48 | 331 | 7.0 | 25.0 | 0.00 | 0.00 | 0.00 | 76 | 1017.7 |
| 20260502234726 | 48 | 46 | 8.0 | 25.0 | 0.00 | 0.00 | 0.00 | 76 | 1017.9 |
| 20260502234625 | 48 | 186 | 8.0 | 25.0 | 0.00 | 0.00 | 0.00 | 75 | 1017.9 |
| 20260502234528 | 48 | 327 | 8.0 | 25.0 | 0.00 | 0.00 | 0.00 | 74 | 1017.8 |
| 20260502234426 | 48 | 282 | 8.0 | 25.0 | 0.00 | 0.00 | 0.00 | 74 | 1017.9 |
| 20260502234415 | 49 | 348 | 8.0 | 25.0 | 0.00 | 0.00 | 0.00 | 73 | 1017.8 |
| 20260502234411 | 49 | 315 | 8.0 | 25.0 | 0.00 | 0.00 | 0.00 | 72 | 1017.8 |
| 20260502234405 | 50 | 319 | 7.0 | 21.0 | 0.00 | 0.00 | 0.00 | 71 | 1017.7 |
| 20260502234349 | 49 | 5 | 8.0 | 25.0 | 0.00 | 0.00 | 0.00 | 73 | 1017.9 |
| 20260502234207 | 49 | 65 | 8.0 | 25.0 | 0.00 | 0.00 | 0.00 | 72 | 1017.7 |
| 20260502233825 | 50 | 102 | 7.0 | 21.0 | 0.00 | 0.00 | 0.00 | 70 | 1017.7 |
| 20260502233725 | 50 | 296 | 7.0 | 21.0 | 0.00 | 0.00 | 0.00 | 69 | 1017.6 |
| 20260502233625 | 50 | 306 | 7.0 | 21.0 | 0.00 | 0.00 | 0.00 | 68 | 1017.7 |
| 20260502233526 | 50 | 287 | 7.0 | 21.0 | 0.00 | 0.00 | 0.00 | 67 | 1017.6 |
| 20260502233425 | 50 | 39 | 6.0 | 21.0 | 0.00 | 0.00 | 0.00 | 66 | 1017.7 |
| 20260502233358 | 51 | 219 | 6.0 | 20.0 | 0.00 | 0.00 | 0.00 | 65 | 1017.5 |
| 20260502233347 | 51 | 286 | 6.0 | 21.0 | 0.00 | 0.00 | 0.00 | 66 | 1017.7 |
| 20260502233121 | 51 | 213 | 5.0 | 20.0 | 0.00 | 0.00 | 0.00 | 64 | 1017.6 |
| 20260502233024 | 51 | 348 | 4.0 | 17.0 | 0.00 | 0.00 | 0.00 | 63 | 1017.6 |
| 20260502232922 | 51 | 327 | 4.0 | 12.0 | 0.00 | 0.00 | 0.00 | 62 | 1017.5 |
| 20260502232821 | 51 | 305 | 4.0 | 12.0 | 0.00 | 0.00 | 0.00 | 62 | 1017.5 |
| 20260502232721 | 51 | 348 | 4.0 | 12.0 | 0.00 | 0.00 | 0.00 | 61 | 1017.4 |
| 20260502232622 | 51 | 261 | 4.0 | 12.0 | 0.00 | 0.00 | 0.00 | 61 | 1017.3 |
| 20260502232523 | 51 | 267 | 4.0 | 12.0 | 0.00 | 0.00 | 0.00 | 61 | 1017.3 |
| 20260502232417 | 51 | 326 | 4.0 | 11.0 | 0.00 | 0.00 | 0.00 | 61 | 1017.3 |
| 20260502232350 | 51 | 310 | 3.0 | 11.0 | 0.00 | 0.00 | 0.00 | 62 | 1017.3 |
| 20260502232340 | 51 | 0 | 4.0 | 11.0 | 0.00 | 0.00 | 0.00 | 61 | 1017.3 |
| 20260502232118 | 51 | 257 | 3.0 | 11.0 | 0.00 | 0.00 | 0.00 | 62 | 1017.2 |
| 20260502232017 | 51 | 273 | 3.0 | 11.0 | 0.00 | 0.00 | 0.00 | 63 | 1017.3 |
| 20260502231919 | 51 | 272 | 3.0 | 11.0 | 0.00 | 0.00 | 0.00 | 63 | 1017.2 |
| 20260502231817 | 51 | 281 | 3.0 | 9.0 | 0.00 | 0.00 | 0.00 | 63 | 1017.2 |
| 20260502231719 | 51 | 264 | 3.0 | 9.0 | 0.00 | 0.00 | 0.00 | 63 | 1017.2 |
| 20260502231617 | 51 | 267 | 3.0 | 9.0 | 0.00 | 0.00 | 0.00 | 63 | 1017.2 |
| 20260502231529 | 51 | 256 | 3.0 | 8.0 | 0.00 | 0.00 | 0.00 | 63 | 1017.1 |
| 20260502231520 | 51 | 238 | 3.0 | 9.0 | 0.00 | 0.00 | 0.00 | 63 | 1017.2 |
| 20260502231457 | 51 | 185 | 3.0 | 9.0 | 0.00 | 0.00 | 0.00 | 64 | 1017.2 |
| 20260502231328 | 51 | 225 | 3.0 | 8.0 | 0.00 | 0.00 | 0.00 | 63 | 1017.2 |
| 20260502231307 | 51 | 223 | 3.0 | 8.0 | 0.00 | 0.00 | 0.00 | 64 | 1017.0 |
| 20260502231143 | 51 | 195 | 3.0 | 8.0 | 0.00 | 0.00 | 0.00 | 64 | 1017.1 |
| 20260502230917 | 50 | 297 | 3.0 | 7.0 | 0.00 | 0.00 | 0.00 | 63 | 1017.1 |
| 20260502230818 | 50 | 237 | 3.0 | 6.0 | 0.00 | 0.00 | 0.00 | 64 | 1017.0 |
| 20260502230741 | 50 | 244 | 3.0 | 5.0 | 0.00 | 0.00 | 0.00 | 64 | 1017.0 |
| 20260502230728 | 50 | 273 | 2.0 | 6.0 | 0.00 | 0.00 | 0.00 | 64 | 1017.0 |
| 20260502230707 | 50 | 228 | 2.0 | 5.0 | 0.00 | 0.00 | 0.00 | 64 | 1017.0 |
| 20260502230543 | 50 | 254 | 2.0 | 5.0 | 0.00 | 0.00 | 0.00 | 65 | 1017.0 |
| 20260502230339 | 50 | 226 | 2.0 | 7.0 | 0.00 | 0.00 | 0.00 | 65 | 1017.0 |
| 20260502230329 | 50 | 252 | 3.0 | 7.0 | 0.00 | 0.00 | 0.00 | 64 | 1017.0 |
| 20260502230110 | 50 | 223 | 2.0 | 7.0 | 0.00 | 0.00 | 0.00 | 65 | 1017.0 |
| 20260502230033 | 51 | 223 | 2.0 | 7.0 | 0.00 | 0.00 | 0.00 | 65 | 1017.0 |
| 20260502230024 | 51 | 223 | 2.0 | 7.0 | 0.00 | 0.00 | 0.00 | 65 | 1017.0 |
| 20260502225804 | 51 | 254 | 3.0 | 7.0 | 0.00 | 0.00 | 0.00 | 65 | 1017.0 |
| 20260502225735 | 51 | 265 | 3.0 | 7.0 | 0.00 | 0.00 | 0.00 | 66 | 1017.0 |
| 20260502225725 | 51 | 257 | 3.0 | 7.0 | 0.00 | 0.00 | 0.00 | 66 | 1017.0 |
| 20260502225502 | 51 | 261 | 3.0 | 7.0 | 0.00 | 0.00 | 0.00 | 64 | 1017.0 |
| 20260502225401 | 51 | 270 | 3.0 | 7.0 | 0.00 | 0.00 | 0.00 | 66 | 1017.0 |
| 20260502225204 | 51 | 215 | 3.0 | 7.0 | 0.00 | 0.00 | 0.00 | 66 | 1017.0 |
| 20260502225056 | 51 | 219 | 3.0 | 7.0 | 0.00 | 0.00 | 0.00 | 67 | 1017.0 |
| 20260502224955 | 51 | 217 | 3.0 | 8.0 | 0.00 | 0.00 | 0.00 | 66 | 1017.0 |
| 20260502224855 | 51 | 255 | 3.0 | 8.0 | 0.00 | 0.00 | 0.00 | 65 | 1017.0 |
| 20260502224753 | 51 | 205 | 3.0 | 8.0 | 0.00 | 0.00 | 0.00 | 65 | 1017.0 |
| 20260502224654 | 51 | 209 | 3.0 | 8.0 | 0.00 | 0.00 | 0.00 | 64 | 1017.1 |
| 20260502224552 | 51 | 209 | 4.0 | 8.0 | 0.00 | 0.00 | 0.00 | 65 | 1017.1 |
| 20260502224453 | 51 | 277 | 4.0 | 8.0 | 0.00 | 0.00 | 0.00 | 64 | 1017.0 |
| 20260502224352 | 51 | 213 | 4.0 | 8.0 | 0.00 | 0.00 | 0.00 | 64 | 1017.0 |
| 20260502224252 | 51 | 213 | 4.0 | 9.0 | 0.00 | 0.00 | 0.00 | 64 | 1017.0 |
| 20260502224151 | 51 | 216 | 4.0 | 9.0 | 0.00 | 0.00 | 0.00 | 64 | 1017.0 |
| 20260502224051 | 51 | 221 | 4.0 | 11.0 | 0.00 | 0.00 | 0.00 | 63 | 1017.1 |
| 20260502223953 | 52 | 205 | 4.0 | 11.0 | 0.00 | 0.00 | 0.00 | 63 | 1017.1 |
| 20260502223851 | 52 | 229 | 4.0 | 11.0 | 0.00 | 0.00 | 0.00 | 65 | 1017.1 |
| 20260502223749 | 52 | 190 | 5.0 | 11.0 | 0.00 | 0.00 | 0.00 | 64 | 1017.1 |
| 20260502223649 | 52 | 237 | 5.0 | 11.0 | 0.00 | 0.00 | 0.00 | 62 | 1017.0 |
| 20260502223549 | 52 | 250 | 4.0 | 11.0 | 0.00 | 0.00 | 0.00 | 62 | 1017.1 |
| 20260502223449 | 52 | 186 | 5.0 | 11.0 | 0.00 | 0.00 | 0.00 | 61 | 1017.1 |
| 20260502223350 | 52 | 217 | 4.0 | 12.0 | 0.00 | 0.00 | 0.00 | 62 | 1017.0 |
| 20260502223250 | 52 | 238 | 4.0 | 12.0 | 0.00 | 0.00 | 0.00 | 63 | 1017.1 |
| 20260502223149 | 53 | 203 | 4.0 | 12.0 | 0.00 | 0.00 | 0.00 | 63 | 1017.1 |
| 20260502223050 | 53 | 240 | 4.0 | 12.0 | 0.00 | 0.00 | 0.00 | 62 | 1017.1 |
| 20260502223037 | 53 | 219 | 5.0 | 17.0 | 0.00 | 0.00 | 0.00 | 59 | 1017.0 |
| 20260502223032 | 53 | 203 | 5.0 | 12.0 | 0.00 | 0.00 | 0.00 | 60 | 1017.1 |
| 20260502223015 | 53 | 218 | 4.0 | 12.0 | 0.00 | 0.00 | 0.00 | 61 | 1017.1 |
| 20260502222956 | 53 | 209 | 5.0 | 12.0 | 0.00 | 0.00 | 0.00 | 60 | 1017.1 |
| 20260502222711 | 53 | 216 | 5.0 | 12.0 | 0.00 | 0.00 | 0.00 | 59 | 1017.1 |
| 20260502222450 | 53 | 225 | 5.0 | 17.0 | 0.00 | 0.00 | 0.00 | 58 | 1017.0 |
| 20260502222352 | 53 | 239 | 5.0 | 17.0 | 0.00 | 0.00 | 0.00 | 57 | 1017.0 |
| 20260502222326 | 53 | 229 | 4.0 | 17.0 | 0.00 | 0.00 | 0.00 | 58 | 1017.1 |
| 20260502222315 | 53 | 187 | 4.0 | 17.0 | 0.00 | 0.00 | 0.00 | 56 | 1017.0 |
| 20260502222049 | 53 | 219 | 4.0 | 17.0 | 0.00 | 0.00 | 0.00 | 55 | 1017.0 |
| 20260502222003 | 54 | 226 | 3.0 | 17.0 | 0.00 | 0.00 | 0.00 | 54 | 1017.0 |
| 20260502221953 | 54 | 265 | 4.0 | 17.0 | 0.00 | 0.00 | 0.00 | 54 | 1017.0 |
| 20260502221930 | 54 | 279 | 4.0 | 17.0 | 0.00 | 0.00 | 0.00 | 54 | 1017.1 |
| 20260502221808 | 54 | 329 | 3.0 | 17.0 | 0.00 | 0.00 | 0.00 | 54 | 1017.0 |
| 20260502221618 | 54 | 17 | 3.0 | 11.0 | 0.00 | 0.00 | 0.00 | 55 | 1017.0 |
| 20260502221608 | 54 | 208 | 3.0 | 8.0 | 0.00 | 0.00 | 0.00 | 54 | 1017.1 |
| 20260502221349 | 54 | 291 | 3.0 | 11.0 | 0.00 | 0.00 | 0.00 | 55 | 1017.1 |
| 20260502221248 | 54 | 265 | 3.0 | 13.0 | 0.00 | 0.00 | 0.00 | 53 | 1016.9 |
| 20260502221148 | 54 | 79 | 3.0 | 13.0 | 0.00 | 0.00 | 0.00 | 51 | 1016.9 |
| 20260502221048 | 55 | 207 | 3.0 | 13.0 | 0.00 | 0.00 | 0.00 | 52 | 1016.9 |
| 20260502220947 | 55 | 343 | 3.0 | 13.0 | 0.00 | 0.00 | 0.00 | 51 | 1016.9 |
| 20260502220847 | 55 | 344 | 3.0 | 13.0 | 0.00 | 0.00 | 0.00 | 50 | 1016.8 |
| 20260502220747 | 55 | 216 | 3.0 | 13.0 | 0.00 | 0.00 | 0.00 | 50 | 1016.8 |
| 20260502220649 | 55 | 292 | 3.0 | 13.0 | 0.00 | 0.00 | 0.00 | 50 | 1016.8 |
| 20260502220547 | 55 | 254 | 3.0 | 13.0 | 0.00 | 0.00 | 0.00 | 51 | 1016.8 |
| 20260502220446 | 55 | 317 | 3.0 | 13.0 | 0.00 | 0.00 | 0.00 | 51 | 1016.8 |
| 20260502220346 | 55 | 325 | 2.0 | 13.0 | 0.00 | 0.00 | 0.00 | 51 | 1016.7 |
| 20260502220245 | 55 | 297 | 2.0 | 7.0 | 0.00 | 0.00 | 0.00 | 52 | 1016.7 |
| 20260502220146 | 55 | 254 | 2.0 | 7.0 | 0.00 | 0.00 | 0.00 | 51 | 1016.5 |
| 20260502220044 | 55 | 274 | 2.0 | 7.0 | 0.00 | 0.00 | 0.00 | 51 | 1016.5 |
| 20260502220016 | 55 | 240 | 2.0 | 7.0 | 0.00 | 0.00 | 0.00 | 50 | 1016.4 |
| 20260502220005 | 55 | 311 | 2.0 | 7.0 | 0.00 | 0.00 | 0.00 | 50 | 1016.4 |
| 20260502215743 | 56 | 256 | 2.0 | 7.0 | 0.00 | 0.00 | 0.00 | 49 | 1016.4 |
| 20260502215643 | 56 | 236 | 2.0 | 7.0 | 0.00 | 0.00 | 0.00 | 49 | 1016.3 |
| 20260502215543 | 56 | 269 | 2.0 | 7.0 | 0.00 | 0.00 | 0.00 | 50 | 1016.3 |
| 20260502215443 | 56 | 194 | 2.0 | 6.0 | 0.00 | 0.00 | 0.00 | 49 | 1016.4 |
| 20260502215343 | 56 | 323 | 2.0 | 6.0 | 0.00 | 0.00 | 0.00 | 50 | 1016.4 |
| 20260502215243 | 56 | 318 | 2.0 | 6.0 | 0.00 | 0.00 | 0.00 | 49 | 1016.3 |
| 20260502215145 | 56 | 321 | 2.0 | 6.0 | 0.00 | 0.00 | 0.00 | 48 | 1016.3 |
| 20260502215042 | 56 | 311 | 3.0 | 6.0 | 0.00 | 0.00 | 0.00 | 47 | 1016.4 |
| 20260502214938 | 56 | 341 | 3.0 | 6.0 | 0.00 | 0.00 | 0.00 | 47 | 1016.3 |
| 20260502214840 | 56 | 265 | 3.0 | 6.0 | 0.00 | 0.00 | 0.00 | 49 | 1016.3 |
| 20260502214739 | 57 | 11 | 3.0 | 6.0 | 0.00 | 0.00 | 0.00 | 47 | 1016.3 |
| 20260502214639 | 57 | 5 | 3.0 | 6.0 | 0.00 | 0.00 | 0.00 | 48 | 1016.3 |
| 20260502214540 | 57 | 0 | 3.0 | 6.0 | 0.00 | 0.00 | 0.00 | 48 | 1016.4 |
| 20260502214441 | 57 | 0 | 3.0 | 6.0 | 0.00 | 0.00 | 0.00 | 47 | 1016.4 |
| 20260502214337 | 57 | 327 | 3.0 | 7.0 | 0.00 | 0.00 | 0.00 | 45 | 1016.3 |
| 20260502214239 | 57 | 338 | 3.0 | 8.0 | 0.00 | 0.00 | 0.00 | 46 | 1016.4 |
| 20260502214217 | 58 | 326 | 3.0 | 9.0 | 0.00 | 0.00 | 0.00 | 46 | 1016.4 |
| 20260502214213 | 58 | 250 | 3.0 | 9.0 | 0.00 | 0.00 | 0.00 | 45 | 1016.3 |
| 20260502214208 | 58 | 303 | 4.0 | 9.0 | 0.00 | 0.00 | 0.00 | 44 | 1016.4 |
| 20260502214153 | 58 | 329 | 3.0 | 8.0 | 0.00 | 0.00 | 0.00 | 47 | 1016.4 |
| 20260502214134 | 58 | 338 | 3.0 | 9.0 | 0.00 | 0.00 | 0.00 | 46 | 1016.4 |
| 20260502213630 | 58 | 274 | 4.0 | 9.0 | 0.00 | 0.00 | 0.00 | 43 | 1016.3 |
| 20260502213529 | 59 | 250 | 4.0 | 10.0 | 0.00 | 0.00 | 0.00 | 44 | 1016.2 |
| 20260502213427 | 59 | 234 | 4.0 | 10.0 | 0.00 | 0.00 | 0.00 | 44 | 1016.2 |
| 20260502213325 | 59 | 261 | 4.0 | 10.0 | 0.00 | 0.00 | 0.00 | 43 | 1016.3 |
| 20260502213224 | 59 | 325 | 4.0 | 10.0 | 0.00 | 0.00 | 0.00 | 45 | 1016.2 |
| 20260502213124 | 59 | 274 | 4.0 | 10.0 | 0.00 | 0.00 | 0.00 | 44 | 1016.3 |
| 20260502213023 | 59 | 309 | 4.0 | 10.0 | 0.00 | 0.00 | 0.00 | 45 | 1016.2 |
| 20260502212922 | 59 | 13 | 3.0 | 10.0 | 0.00 | 0.00 | 0.00 | 45 | 1016.3 |
| 20260502212821 | 59 | 204 | 3.0 | 10.0 | 0.00 | 0.00 | 0.00 | 47 | 1016.2 |
| 20260502212719 | 59 | 227 | 3.0 | 10.0 | 0.00 | 0.00 | 0.00 | 45 | 1016.2 |
| 20260502212620 | 59 | 351 | 3.0 | 10.0 | 0.00 | 0.00 | 0.00 | 45 | 1016.2 |
| 20260502212518 | 59 | 306 | 3.0 | 8.0 | 0.00 | 0.00 | 0.00 | 47 | 1016.2 |
| 20260502212407 | 59 | 284 | 3.0 | 9.0 | 0.00 | 0.00 | 0.00 | 46 | 1016.3 |
| 20260502212307 | 59 | 273 | 3.0 | 10.0 | 0.00 | 0.00 | 0.00 | 45 | 1016.2 |
| 20260502212240 | 58 | 349 | 4.0 | 10.0 | 0.00 | 0.00 | 0.00 | 45 | 1016.2 |
| 20260502212229 | 58 | 34 | 3.0 | 10.0 | 0.00 | 0.00 | 0.00 | 45 | 1016.3 |
| 20260502212004 | 58 | 333 | 4.0 | 10.0 | 0.00 | 0.00 | 0.00 | 45 | 1016.2 |
| 20260502211859 | 58 | 318 | 4.0 | 10.0 | 0.00 | 0.00 | 0.00 | 45 | 1016.2 |
| 20260502211758 | 58 | 298 | 4.0 | 10.0 | 0.00 | 0.00 | 0.00 | 47 | 1016.3 |
| 20260502211658 | 58 | 22 | 4.0 | 10.0 | 0.00 | 0.00 | 0.00 | 45 | 1016.3 |
| 20260502211557 | 58 | 325 | 4.0 | 10.0 | 0.00 | 0.00 | 0.00 | 44 | 1016.3 |
| 20260502211458 | 58 | 294 | 5.0 | 10.0 | 0.00 | 0.00 | 0.00 | 44 | 1016.3 |
| 20260502211353 | 58 | 336 | 4.0 | 10.0 | 0.00 | 0.00 | 0.00 | 43 | 1016.3 |
| 20260502211253 | 58 | 307 | 4.0 | 10.0 | 0.00 | 0.00 | 0.00 | 45 | 1016.3 |
| 20260502211153 | 58 | 293 | 4.0 | 10.0 | 0.00 | 0.00 | 0.00 | 43 | 1016.3 |
| 20260502211054 | 58 | 33 | 4.0 | 10.0 | 0.00 | 0.00 | 0.00 | 43 | 1016.3 |
| 20260502210952 | 58 | 25 | 4.0 | 10.0 | 0.00 | 0.00 | 0.00 | 44 | 1016.3 |
| 20260502210842 | 58 | 219 | 4.0 | 10.0 | 0.00 | 0.00 | 0.00 | 45 | 1016.3 |
| 20260502210813 | 58 | 196 | 4.0 | 9.0 | 0.00 | 0.00 | 0.00 | 45 | 1016.3 |
| 20260502210804 | 58 | 226 | 4.0 | 10.0 | 0.00 | 0.00 | 0.00 | 46 | 1016.3 |
| 20260502210542 | 58 | 344 | 3.0 | 9.0 | 0.00 | 0.00 | 0.00 | 45 | 1016.3 |
| 20260502210442 | 58 | 289 | 3.0 | 9.0 | 0.00 | 0.00 | 0.00 | 46 | 1016.2 |
| 20260502210342 | 58 | 329 | 4.0 | 9.0 | 0.00 | 0.00 | 0.00 | 45 | 1016.3 |
| 20260502210241 | 58 | 222 | 4.0 | 9.0 | 0.00 | 0.00 | 0.00 | 45 | 1016.3 |
| 20260502210143 | 58 | 225 | 4.0 | 11.0 | 0.00 | 0.00 | 0.00 | 46 | 1016.3 |
| 20260502210042 | 58 | 310 | 4.0 | 11.0 | 0.00 | 0.00 | 0.00 | 45 | 1016.3 |
| 20260502205943 | 58 | 342 | 5.0 | 13.0 | 0.00 | 0.00 | 0.00 | 46 | 1016.3 |
| 20260502205841 | 58 | 319 | 5.0 | 14.0 | 0.00 | 0.00 | 0.00 | 46 | 1016.3 |
| 20260502205743 | 58 | 302 | 5.0 | 14.0 | 0.00 | 0.00 | 0.00 | 45 | 1016.3 |
| 20260502205641 | 58 | 293 | 5.0 | 14.0 | 0.00 | 0.00 | 0.00 | 46 | 1016.2 |
| 20260502205541 | 58 | 292 | 5.0 | 14.0 | 0.00 | 0.00 | 0.00 | 45 | 1016.2 |
| 20260502205438 | 58 | 302 | 5.0 | 14.0 | 0.00 | 0.00 | 0.00 | 46 | 1016.3 |
| 20260502205338 | 58 | 355 | 5.0 | 14.0 | 0.00 | 0.00 | 0.00 | 45 | 1016.2 |
| 20260502205312 | 57 | 331 | 3.0 | 11.0 | 0.00 | 0.00 | 0.00 | 48 | 1016.3 |
| 20260502205308 | 57 | 340 | 3.0 | 11.0 | 0.00 | 0.00 | 0.00 | 48 | 1016.3 |
| 20260502205305 | 57 | 284 | 3.0 | 11.0 | 0.00 | 0.00 | 0.00 | 47 | 1016.2 |
| 20260502205253 | 58 | 17 | 4.0 | 14.0 | 0.00 | 0.00 | 0.00 | 44 | 1016.4 |
| 20260502205233 | 58 | 259 | 4.0 | 14.0 | 0.00 | 0.00 | 0.00 | 45 | 1016.3 |
| 20260502205118 | 57 | 289 | 3.0 | 8.0 | 0.00 | 0.00 | 0.00 | 53 | 1016.3 |
| 20260502205104 | 57 | 294 | 3.0 | 14.0 | 0.00 | 0.00 | 0.00 | 47 | 1016.3 |
| 20260502205045 | 57 | 340 | 3.0 | 11.0 | 0.00 | 0.00 | 0.00 | 48 | 1016.3 |
| 20260502204539 | 56 | 254 | 3.0 | 8.0 | 0.00 | 0.00 | 0.00 | 52 | 1016.3 |
| 20260502204440 | 56 | 277 | 3.0 | 8.0 | 0.00 | 0.00 | 0.00 | 51 | 1016.4 |
| 20260502204337 | 56 | 234 | 3.0 | 8.0 | 0.00 | 0.00 | 0.00 | 52 | 1016.3 |
| 20260502204237 | 56 | 235 | 3.0 | 8.0 | 0.00 | 0.00 | 0.00 | 51 | 1016.4 |
| 20260502204137 | 56 | 235 | 3.0 | 8.0 | 0.00 | 0.00 | 0.00 | 52 | 1016.4 |
| 20260502204037 | 56 | 283 | 3.0 | 8.0 | 0.00 | 0.00 | 0.00 | 52 | 1016.4 |
| 20260502203937 | 56 | 237 | 3.0 | 8.0 | 0.00 | 0.00 | 0.00 | 49 | 1016.4 |
| 20260502203836 | 56 | 301 | 3.0 | 8.0 | 0.00 | 0.00 | 0.00 | 49 | 1016.4 |
| 20260502203737 | 56 | 202 | 3.0 | 8.0 | 0.00 | 0.00 | 0.00 | 49 | 1016.5 |
| 20260502203636 | 56 | 323 | 3.0 | 7.0 | 0.00 | 0.00 | 0.00 | 53 | 1016.5 |
| 20260502203536 | 56 | 248 | 3.0 | 9.0 | 0.00 | 0.00 | 0.00 | 50 | 1016.5 |
| 20260502203433 | 56 | 286 | 3.0 | 9.0 | 0.00 | 0.00 | 0.00 | 50 | 1016.5 |
| 20260502203330 | 56 | 320 | 3.0 | 10.0 | 0.00 | 0.00 | 0.00 | 48 | 1016.5 |
| 20260502203232 | 56 | 321 | 4.0 | 10.0 | 0.00 | 0.00 | 0.00 | 48 | 1016.5 |
| 20260502203131 | 56 | 300 | 4.0 | 12.0 | 0.00 | 0.00 | 0.00 | 47 | 1016.4 |
| 20260502203030 | 56 | 281 | 4.0 | 12.0 | 0.00 | 0.00 | 0.00 | 46 | 1016.5 |
| 20260502202951 | 57 | 30 | 4.0 | 12.0 | 0.00 | 0.00 | 0.00 | 47 | 1016.5 |
| 20260502202937 | 56 | 328 | 4.0 | 12.0 | 0.00 | 0.00 | 0.00 | 48 | 1016.5 |
| 20260502202915 | 56 | 72 | 4.0 | 12.0 | 0.00 | 0.00 | 0.00 | 50 | 1016.7 |
| 20260502202748 | 56 | 28 | 4.0 | 12.0 | 0.00 | 0.00 | 0.00 | 48 | 1016.5 |
| 20260502202624 | 57 | 323 | 4.0 | 12.0 | 0.00 | 0.00 | 0.00 | 49 | 1016.4 |
| 20260502202617 | 57 | 66 | 4.0 | 12.0 | 0.00 | 0.00 | 0.00 | 46 | 1016.5 |
| 20260502202558 | 57 | 313 | 4.0 | 12.0 | 0.00 | 0.00 | 0.00 | 49 | 1016.4 |
| 20260502202219 | 57 | 307 | 4.0 | 12.0 | 0.00 | 0.00 | 0.00 | 47 | 1016.5 |
| 20260502202115 | 57 | 41 | 4.0 | 10.0 | 0.00 | 0.00 | 0.00 | 49 | 1016.5 |
| 20260502202017 | 58 | 9 | 4.0 | 10.0 | 0.00 | 0.00 | 0.00 | 47 | 1016.5 |
| 20260502201915 | 58 | 313 | 4.0 | 10.0 | 0.00 | 0.00 | 0.00 | 48 | 1016.5 |
| 20260502201815 | 58 | 5 | 4.0 | 10.0 | 0.00 | 0.00 | 0.00 | 47 | 1016.7 |
| 20260502201717 | 58 | 336 | 4.0 | 10.0 | 0.00 | 0.00 | 0.00 | 47 | 1016.5 |
| 20260502201617 | 58 | 279 | 4.0 | 10.0 | 0.00 | 0.00 | 0.00 | 47 | 1016.5 |
| 20260502201516 | 58 | 57 | 4.0 | 10.0 | 0.00 | 0.00 | 0.00 | 48 | 1016.5 |
| 20260502201416 | 59 | 56 | 4.0 | 10.0 | 0.00 | 0.00 | 0.00 | 46 | 1016.4 |
| 20260502201314 | 59 | 14 | 4.0 | 12.0 | 0.00 | 0.00 | 0.00 | 47 | 1016.5 |
| 20260502201213 | 59 | 55 | 4.0 | 12.0 | 0.00 | 0.00 | 0.00 | 45 | 1016.5 |
| 20260502201110 | 59 | 336 | 4.0 | 12.0 | 0.00 | 0.00 | 0.00 | 45 | 1016.5 |
| 20260502201014 | 59 | 303 | 4.0 | 12.0 | 0.00 | 0.00 | 0.00 | 45 | 1016.5 |
| 20260502200912 | 59 | 327 | 4.0 | 12.0 | 0.00 | 0.00 | 0.00 | 45 | 1016.7 |
| 20260502200812 | 59 | 230 | 4.0 | 12.0 | 0.00 | 0.00 | 0.00 | 48 | 1016.7 |
| 20260502200709 | 58 | 71 | 4.0 | 12.0 | 0.00 | 0.00 | 0.00 | 46 | 1016.7 |
| 20260502200604 | 58 | 175 | 4.0 | 12.0 | 0.00 | 0.00 | 0.00 | 45 | 1016.7 |
| 20260502200506 | 58 | 265 | 4.0 | 12.0 | 0.00 | 0.00 | 0.00 | 46 | 1016.7 |
| 20260502200404 | 58 | 330 | 4.0 | 12.0 | 0.00 | 0.00 | 0.00 | 47 | 1016.5 |
| 20260502200306 | 58 | 249 | 4.0 | 11.0 | 0.00 | 0.00 | 0.00 | 45 | 1016.7 |
| 20260502200202 | 58 | 5 | 4.0 | 11.0 | 0.00 | 0.00 | 0.00 | 49 | 1016.8 |
| 20260502200005 | 57 | 329 | 4.0 | 11.0 | 0.00 | 0.00 | 0.00 | 51 | 1016.7 |
| 20260502195935 | 56 | 277 | 4.0 | 11.0 | 0.00 | 0.00 | 0.00 | 51 | 1016.8 |
| 20260502195925 | 57 | 271 | 4.0 | 11.0 | 0.00 | 0.00 | 0.00 | 54 | 1016.7 |
| 20260502195703 | 56 | 271 | 5.0 | 11.0 | 0.00 | 0.00 | 0.00 | 48 | 1016.7 |
| 20260502195603 | 56 | 207 | 5.0 | 11.0 | 0.00 | 0.00 | 0.00 | 48 | 1016.8 |
| 20260502195502 | 56 | 279 | 4.0 | 10.0 | 0.00 | 0.00 | 0.00 | 48 | 1016.8 |
| 20260502195436 | 56 | 325 | 4.0 | 10.0 | 0.00 | 0.00 | 0.00 | 47 | 1016.9 |
| 20260502195428 | 56 | 308 | 4.0 | 10.0 | 0.00 | 0.00 | 0.00 | 48 | 1016.9 |
| 20260502195203 | 56 | 348 | 4.0 | 10.0 | 0.00 | 0.00 | 0.00 | 48 | 1016.9 |
| 20260502195106 | 56 | 5 | 5.0 | 10.0 | 0.00 | 0.00 | 0.00 | 47 | 1016.9 |
| 20260502194957 | 56 | 294 | 4.0 | 10.0 | 0.00 | 0.00 | 0.00 | 46 | 1016.9 |
| 20260502194856 | 56 | 265 | 5.0 | 10.0 | 0.00 | 0.00 | 0.00 | 46 | 1016.9 |
| 20260502194758 | 56 | 242 | 5.0 | 12.0 | 0.00 | 0.00 | 0.00 | 47 | 1016.9 |
| 20260502194658 | 56 | 284 | 5.0 | 12.0 | 0.00 | 0.00 | 0.00 | 47 | 1017.0 |
| 20260502194559 | 56 | 336 | 5.0 | 12.0 | 0.00 | 0.00 | 0.00 | 46 | 1016.9 |
| 20260502194455 | 56 | 0 | 5.0 | 12.0 | 0.00 | 0.00 | 0.00 | 46 | 1016.9 |
| 20260502194353 | 56 | 298 | 5.0 | 12.0 | 0.00 | 0.00 | 0.00 | 45 | 1016.9 |
| 20260502194253 | 57 | 15 | 5.0 | 12.0 | 0.00 | 0.00 | 0.00 | 44 | 1017.0 |
| 20260502194226 | 57 | 282 | 5.0 | 12.0 | 0.00 | 0.00 | 0.00 | 45 | 1017.0 |
| 20260502194215 | 57 | 308 | 5.0 | 12.0 | 0.00 | 0.00 | 0.00 | 45 | 1016.9 |
| 20260502193947 | 57 | 279 | 4.0 | 12.0 | 0.00 | 0.00 | 0.00 | 44 | 1017.0 |
| 20260502193848 | 57 | 334 | 4.0 | 12.0 | 0.00 | 0.00 | 0.00 | 45 | 1017.0 |
| 20260502193748 | 58 | 342 | 4.0 | 10.0 | 0.00 | 0.00 | 0.00 | 47 | 1017.0 |
| 20260502193647 | 58 | 55 | 4.0 | 9.0 | 0.00 | 0.00 | 0.00 | 45 | 1016.9 |
| 20260502193548 | 58 | 11 | 3.0 | 8.0 | 0.00 | 0.00 | 0.00 | 46 | 1017.0 |
| 20260502193447 | 58 | 336 | 3.0 | 8.0 | 0.00 | 0.00 | 0.00 | 48 | 1016.9 |
| 20260502193347 | 58 | 343 | 3.0 | 8.0 | 0.00 | 0.00 | 0.00 | 48 | 1016.9 |
| 20260502193246 | 58 | 296 | 3.0 | 8.0 | 0.00 | 0.00 | 0.00 | 47 | 1016.9 |
| 20260502193144 | 57 | 228 | 2.0 | 8.0 | 0.00 | 0.00 | 0.00 | 47 | 1016.9 |
| 20260502193045 | 57 | 294 | 2.0 | 7.0 | 0.00 | 0.00 | 0.00 | 47 | 1017.0 |
| 20260502193027 | 57 | 342 | 3.0 | 11.0 | 0.00 | 0.00 | 0.00 | 48 | 1017.0 |
| 20260502193012 | 57 | 334 | 2.0 | 7.0 | 0.00 | 0.00 | 0.00 | 47 | 1017.0 |
| 20260502192848 | 57 | 319 | 2.0 | 7.0 | 0.00 | 0.00 | 0.00 | 46 | 1016.9 |
| 20260502192842 | 57 | 355 | 3.0 | 11.0 | 0.00 | 0.00 | 0.00 | 46 | 1017.0 |
| 20260502192823 | 57 | 292 | 3.0 | 11.0 | 0.00 | 0.00 | 0.00 | 48 | 1017.1 |
| 20260502192441 | 57 | 355 | 4.0 | 11.0 | 0.00 | 0.00 | 0.00 | 45 | 1017.1 |
| 20260502192411 | 57 | 71 | 4.0 | 11.0 | 0.00 | 0.00 | 0.00 | 45 | 1017.2 |
| 20260502192400 | 57 | 41 | 4.0 | 11.0 | 0.00 | 0.00 | 0.00 | 45 | 1017.1 |
| 20260502192135 | 57 | 5 | 4.0 | 11.0 | 0.00 | 0.00 | 0.00 | 46 | 1017.2 |
| 20260502192033 | 57 | 46 | 5.0 | 11.0 | 0.00 | 0.00 | 0.00 | 45 | 1017.2 |
| 20260502191934 | 57 | 59 | 5.0 | 11.0 | 0.00 | 0.00 | 0.00 | 45 | 1017.2 |
| 20260502191834 | 57 | 33 | 6.0 | 12.0 | 0.00 | 0.00 | 0.00 | 49 | 1017.2 |
| 20260502191818 | 57 | 32 | 6.0 | 13.0 | 0.00 | 0.00 | 0.00 | 45 | 1017.3 |
| 20260502191812 | 57 | 36 | 6.0 | 13.0 | 0.00 | 0.00 | 0.00 | 48 | 1017.2 |
| 20260502191807 | 57 | 38 | 6.0 | 13.0 | 0.00 | 0.00 | 0.00 | 49 | 1017.3 |
| 20260502191801 | 57 | 336 | 6.0 | 13.0 | 0.00 | 0.00 | 0.00 | 47 | 1017.3 |
| 20260502191745 | 57 | 5 | 6.0 | 13.0 | 0.00 | 0.00 | 0.00 | 47 | 1017.2 |
| 20260502191729 | 57 | 0 | 6.0 | 13.0 | 0.00 | 0.00 | 0.00 | 49 | 1017.2 |
| 20260502191442 | 57 | 38 | 6.0 | 13.0 | 0.00 | 0.00 | 0.00 | 46 | 1017.2 |
| 20260502191424 | 57 | 349 | 6.0 | 13.0 | 0.00 | 0.00 | 0.00 | 47 | 1017.3 |
| 20260502190955 | 58 | 5 | 5.0 | 11.0 | 0.00 | 0.00 | 0.00 | 45 | 1017.3 |
| 20260502190945 | 57 | 5 | 6.0 | 13.0 | 0.00 | 0.00 | 0.00 | 46 | 1017.4 |
| 20260502190712 | 58 | 306 | 5.0 | 11.0 | 0.00 | 0.00 | 0.00 | 46 | 1017.3 |
| 20260502190643 | 58 | 40 | 5.0 | 13.0 | 0.00 | 0.00 | 0.00 | 48 | 1017.4 |
| 20260502190635 | 58 | 349 | 5.0 | 13.0 | 0.00 | 0.00 | 0.00 | 47 | 1017.3 |
| 20260502190412 | 58 | 355 | 5.0 | 13.0 | 0.00 | 0.00 | 0.00 | 47 | 1017.3 |
| 20260502190312 | 58 | 336 | 5.0 | 13.0 | 0.00 | 0.00 | 0.00 | 45 | 1017.2 |
| 20260502190206 | 58 | 323 | 5.0 | 13.0 | 0.00 | 0.00 | 0.00 | 46 | 1017.2 |
| 20260502190104 | 58 | 17 | 5.0 | 13.0 | 0.00 | 0.00 | 0.00 | 46 | 1017.2 |
| 20260502190006 | 58 | 306 | 5.0 | 13.0 | 0.00 | 0.00 | 0.00 | 46 | 1017.3 |
| 20260502185941 | 58 | 14 | 6.0 | 13.0 | 0.00 | 0.00 | 0.00 | 47 | 1017.3 |
| 20260502185929 | 58 | 336 | 5.0 | 13.0 | 0.00 | 0.00 | 0.00 | 47 | 1017.3 |
| 20260502185659 | 58 | 10 | 5.0 | 13.0 | 0.00 | 0.00 | 0.00 | 48 | 1017.3 |
| 20260502185559 | 57 | 5 | 5.0 | 13.0 | 0.00 | 0.00 | 0.00 | 47 | 1017.4 |
| 20260502185500 | 57 | 345 | 5.0 | 13.0 | 0.00 | 0.00 | 0.00 | 48 | 1017.3 |
| 20260502185401 | 57 | 349 | 5.0 | 13.0 | 0.00 | 0.00 | 0.00 | 47 | 1017.3 |
| 20260502185300 | 57 | 41 | 5.0 | 13.0 | 0.00 | 0.00 | 0.00 | 47 | 1017.3 |
| 20260502185146 | 57 | 36 | 5.0 | 13.0 | 0.00 | 0.00 | 0.00 | 45 | 1017.4 |
| 20260502185047 | 58 | 23 | 4.0 | 13.0 | 0.00 | 0.00 | 0.00 | 46 | 1017.3 |
| 20260502184947 | 58 | 332 | 4.0 | 11.0 | 0.00 | 0.00 | 0.00 | 47 | 1017.3 |
| 20260502184845 | 58 | 0 | 4.0 | 11.0 | 0.00 | 0.00 | 0.00 | 45 | 1017.3 |
| 20260502184817 | 58 | 11 | 3.0 | 9.0 | 0.00 | 0.00 | 0.00 | 47 | 1017.2 |
| 20260502184807 | 58 | 34 | 3.0 | 11.0 | 0.00 | 0.00 | 0.00 | 44 | 1017.4 |
| 20260502184542 | 58 | 350 | 3.0 | 10.0 | 0.00 | 0.00 | 0.00 | 46 | 1017.2 |
| 20260502184443 | 58 | 128 | 3.0 | 10.0 | 0.00 | 0.00 | 0.00 | 44 | 1017.3 |
| 20260502184343 | 58 | 301 | 4.0 | 10.0 | 0.00 | 0.00 | 0.00 | 43 | 1017.3 |
| 20260502184240 | 58 | 304 | 4.0 | 13.0 | 0.00 | 0.00 | 0.00 | 44 | 1017.2 |
| 20260502184132 | 58 | 315 | 4.0 | 13.0 | 0.00 | 0.00 | 0.00 | 45 | 1017.2 |
| 20260502184105 | 58 | 241 | 5.0 | 13.0 | 0.00 | 0.00 | 0.00 | 44 | 1017.2 |
| 20260502184056 | 58 | 272 | 5.0 | 13.0 | 0.00 | 0.00 | 0.00 | 45 | 1017.2 |
| 20260502183834 | 58 | 300 | 5.0 | 13.0 | 0.00 | 0.00 | 0.00 | 44 | 1017.2 |
| 20260502183735 | 58 | 197 | 5.0 | 15.0 | 0.00 | 0.00 | 0.00 | 45 | 1017.2 |
| 20260502183624 | 58 | 310 | 5.0 | 15.0 | 0.00 | 0.00 | 0.00 | 44 | 1017.2 |
| 20260502183523 | 58 | 306 | 5.0 | 15.0 | 0.00 | 0.00 | 0.00 | 45 | 1017.3 |
| 20260502183423 | 58 | 91 | 5.0 | 15.0 | 0.00 | 0.00 | 0.00 | 43 | 1017.2 |
| 20260502183401 | 58 | 339 | 5.0 | 15.0 | 0.00 | 0.00 | 0.00 | 43 | 1017.3 |
| 20260502183349 | 58 | 289 | 5.0 | 15.0 | 0.00 | 0.00 | 0.00 | 42 | 1017.2 |
| 20260502183118 | 58 | 55 | 5.0 | 15.0 | 0.00 | 0.00 | 0.00 | 49 | 1017.4 |
| 20260502183018 | 58 | 0 | 5.0 | 15.0 | 0.00 | 0.00 | 0.00 | 46 | 1017.3 |
| 20260502182938 | 58 | 22 | 5.0 | 13.0 | 0.00 | 0.00 | 0.00 | 45 | 1017.4 |
| 20260502182922 | 58 | 355 | 5.0 | 15.0 | 0.00 | 0.00 | 0.00 | 43 | 1017.2 |
| 20260502182914 | 58 | 0 | 6.0 | 16.0 | 0.00 | 0.00 | 0.00 | 46 | 1017.3 |
| 20260502182909 | 58 | 169 | 6.0 | 16.0 | 0.00 | 0.00 | 0.00 | 45 | 1017.3 |
| 20260502182511 | 58 | 306 | 6.0 | 16.0 | 0.00 | 0.00 | 0.00 | 47 | 1017.3 |
| 20260502182408 | 58 | 296 | 6.0 | 16.0 | 0.00 | 0.00 | 0.00 | 46 | 1017.3 |
| 20260502182308 | 57 | 316 | 7.0 | 16.0 | 0.00 | 0.00 | 0.00 | 47 | 1017.3 |
| 20260502182210 | 57 | 326 | 7.0 | 16.0 | 0.00 | 0.00 | 0.00 | 47 | 1017.2 |
| 20260502182102 | 57 | 71 | 7.0 | 16.0 | 0.00 | 0.00 | 0.00 | 45 | 1017.2 |
| 20260502182003 | 57 | 5 | 7.0 | 16.0 | 0.00 | 0.00 | 0.00 | 45 | 1017.3 |
| 20260502181902 | 57 | 278 | 6.0 | 16.0 | 0.00 | 0.00 | 0.00 | 45 | 1017.3 |
| 20260502181802 | 57 | 0 | 6.0 | 15.0 | 0.00 | 0.00 | 0.00 | 46 | 1017.4 |
| 20260502181702 | 56 | 5 | 5.0 | 15.0 | 0.00 | 0.00 | 0.00 | 49 | 1017.3 |
| 20260502181602 | 56 | 17 | 5.0 | 15.0 | 0.00 | 0.00 | 0.00 | 49 | 1017.4 |
| 20260502181502 | 56 | 0 | 5.0 | 15.0 | 0.00 | 0.00 | 0.00 | 48 | 1017.3 |
| 20260502181358 | 56 | 279 | 5.0 | 15.0 | 0.00 | 0.00 | 0.00 | 46 | 1017.4 |
| 20260502181258 | 56 | 311 | 5.0 | 15.0 | 0.00 | 0.00 | 0.00 | 46 | 1017.3 |
| 20260502181159 | 56 | 313 | 4.0 | 15.0 | 0.00 | 0.00 | 0.00 | 47 | 1017.4 |
| 20260502181059 | 56 | 340 | 4.0 | 10.0 | 0.00 | 0.00 | 0.00 | 47 | 1017.4 |
| 20260502180958 | 56 | 279 | 4.0 | 10.0 | 0.00 | 0.00 | 0.00 | 46 | 1017.3 |
| 20260502180856 | 56 | 278 | 5.0 | 10.0 | 0.00 | 0.00 | 0.00 | 46 | 1017.4 |
| 20260502180756 | 56 | 300 | 5.0 | 15.0 | 0.00 | 0.00 | 0.00 | 50 | 1017.4 |
| 20260502180656 | 56 | 22 | 5.0 | 15.0 | 0.00 | 0.00 | 0.00 | 48 | 1017.5 |
| 20260502180559 | 57 | 53 | 5.0 | 15.0 | 0.00 | 0.00 | 0.00 | 46 | 1017.4 |
| 20260502180458 | 57 | 326 | 5.0 | 15.0 | 0.00 | 0.00 | 0.00 | 49 | 1017.4 |
| 20260502180352 | 57 | 270 | 5.0 | 15.0 | 0.00 | 0.00 | 0.00 | 47 | 1017.3 |
| 20260502180252 | 57 | 71 | 5.0 | 15.0 | 0.00 | 0.00 | 0.00 | 46 | 1017.3 |
| 20260502180152 | 57 | 79 | 5.0 | 15.0 | 0.00 | 0.00 | 0.00 | 47 | 1017.4 |
| 20260502170440 | 57 | 338 | 3.0 | 9.0 | 0.00 | 0.00 | 0.00 | 47 | 1017.7 |
| 20260502170356 | 56 | 42 | 3.0 | 9.0 | 0.00 | 0.00 | 0.00 | 51 | 1017.8 |
| 20260502170352 | 56 | 86 | 3.0 | 9.0 | 0.00 | 0.00 | 0.00 | 54 | 1017.8 |
| 20260502170341 | 57 | 66 | 3.0 | 9.0 | 0.00 | 0.00 | 0.00 | 53 | 1017.7 |
| 20260502170320 | 56 | 318 | 3.0 | 8.0 | 0.00 | 0.00 | 0.00 | 49 | 1017.7 |
| 20260502164333 | 56 | 313 | 4.0 | 10.0 | 0.00 | 0.00 | 0.00 | 49 | 1017.9 |
| 20260502164233 | 56 | 355 | 4.0 | 10.0 | 0.00 | 0.00 | 0.00 | 47 | 1017.8 |
| 20260502164208 | 56 | 77 | 4.0 | 11.0 | 0.00 | 0.00 | 0.00 | 50 | 1017.9 |
| 20260502164157 | 56 | 342 | 3.0 | 11.0 | 0.00 | 0.00 | 0.00 | 52 | 1017.9 |
| 20260502164133 | 56 | 55 | 4.0 | 11.0 | 0.00 | 0.00 | 0.00 | 52 | 1017.8 |
| 20260502164006 | 56 | 28 | 4.0 | 11.0 | 0.00 | 0.00 | 0.00 | 47 | 1017.9 |
| 20260502163809 | 56 | 53 | 4.0 | 11.0 | 0.00 | 0.00 | 0.00 | 47 | 1017.9 |
| 20260502163756 | 56 | 32 | 4.0 | 11.0 | 0.00 | 0.00 | 0.00 | 50 | 1017.9 |
| 20260502163605 | 56 | 11 | 4.0 | 11.0 | 0.00 | 0.00 | 0.00 | 49 | 1017.9 |
| 20260502163553 | 56 | 82 | 4.0 | 11.0 | 0.00 | 0.00 | 0.00 | 50 | 1017.9 |
| 20260502163333 | 56 | 355 | 4.0 | 11.0 | 0.00 | 0.00 | 0.00 | 49 | 1018.0 |
| 20260502163232 | 56 | 350 | 4.0 | 11.0 | 0.00 | 0.00 | 0.00 | 51 | 1017.9 |
| 20260502163132 | 56 | 349 | 3.0 | 9.0 | 0.00 | 0.00 | 0.00 | 50 | 1017.9 |
| 20260502163034 | 56 | 22 | 3.0 | 9.0 | 0.00 | 0.00 | 0.00 | 52 | 1017.9 |
| 20260502162933 | 56 | 43 | 3.0 | 9.0 | 0.00 | 0.00 | 0.00 | 51 | 1017.8 |
| 20260502162832 | 56 | 22 | 3.0 | 9.0 | 0.00 | 0.00 | 0.00 | 48 | 1017.9 |
| 20260502162632 | 56 | 336 | 3.0 | 8.0 | 0.00 | 0.00 | 0.00 | 48 | 1017.8 |
| 20260502162533 | 56 | 34 | 3.0 | 8.0 | 0.00 | 0.00 | 0.00 | 51 | 1018.0 |
| 20260502162433 | 56 | 5 | 3.0 | 8.0 | 0.00 | 0.00 | 0.00 | 49 | 1017.9 |
| 20260502162328 | 56 | 346 | 3.0 | 8.0 | 0.00 | 0.00 | 0.00 | 48 | 1018.0 |
| 20260502162229 | 56 | 42 | 4.0 | 10.0 | 0.00 | 0.00 | 0.00 | 45 | 1018.0 |
| 20260502162128 | 56 | 64 | 4.0 | 10.0 | 0.00 | 0.00 | 0.00 | 46 | 1018.0 |
| 20260502162029 | 56 | 64 | 4.0 | 10.0 | 0.00 | 0.00 | 0.00 | 52 | 1017.9 |
| 20260502161930 | 56 | 15 | 3.0 | 10.0 | 0.00 | 0.00 | 0.00 | 48 | 1017.9 |
| 20260502161828 | 56 | 0 | 3.0 | 10.0 | 0.00 | 0.00 | 0.00 | 52 | 1017.9 |
| 20260502161730 | 56 | 355 | 3.0 | 10.0 | 0.00 | 0.00 | 0.00 | 52 | 1017.9 |
| 20260502161624 | 56 | 59 | 3.0 | 10.0 | 0.00 | 0.00 | 0.00 | 49 | 1017.9 |
| 20260502161525 | 55 | 44 | 3.0 | 10.0 | 0.00 | 0.00 | 0.00 | 47 | 1017.9 |
| 20260502161425 | 56 | 82 | 3.0 | 10.0 | 0.00 | 0.00 | 0.00 | 47 | 1018.0 |
| 20260502161324 | 56 | 85 | 3.0 | 10.0 | 0.00 | 0.00 | 0.00 | 48 | 1018.0 |
| 20260502161225 | 56 | 93 | 2.0 | 10.0 | 0.00 | 0.00 | 0.00 | 55 | 1018.0 |
| 20260502161125 | 56 | 53 | 2.0 | 9.0 | 0.00 | 0.00 | 0.00 | 54 | 1017.9 |
| 20260502161024 | 56 | 53 | 3.0 | 9.0 | 0.00 | 0.00 | 0.00 | 54 | 1018.0 |
| 20260502160925 | 56 | 53 | 3.0 | 9.0 | 0.00 | 0.00 | 0.00 | 54 | 1017.9 |
| 20260502160855 | 55 | 5 | 3.0 | 10.0 | 0.00 | 0.00 | 0.00 | 53 | 1017.9 |
| 20260502160845 | 55 | 52 | 3.0 | 9.0 | 0.00 | 0.00 | 0.00 | 54 | 1017.9 |
| 20260502160658 | 55 | 59 | 3.0 | 10.0 | 0.00 | 0.00 | 0.00 | 56 | 1017.9 |
| 20260502160648 | 55 | 36 | 3.0 | 10.0 | 0.00 | 0.00 | 0.00 | 51 | 1017.9 |
| 20260502160424 | 55 | 62 | 3.0 | 10.0 | 0.00 | 0.00 | 0.00 | 54 | 1017.9 |
| 20260502160351 | 55 | 40 | 3.0 | 10.0 | 0.00 | 0.00 | 0.00 | 56 | 1017.9 |
| 20260502160341 | 55 | 45 | 3.0 | 10.0 | 0.00 | 0.00 | 0.00 | 54 | 1017.9 |
| 20260502160122 | 54 | 355 | 3.0 | 10.0 | 0.00 | 0.00 | 0.00 | 55 | 1017.9 |
| 20260502152255 | 52 | 47 | 4.0 | 12.0 | 0.00 | 0.00 | 0.00 | 56 | 1017.9 |
| 20260502152204 | 53 | 21 | 4.0 | 12.0 | 0.00 | 0.00 | 0.00 | 53 | 1017.9 |
| 20260502152153 | 52 | 5 | 4.0 | 12.0 | 0.00 | 0.00 | 0.00 | 55 | 1017.9 |
| 20260502152133 | 52 | 5 | 4.0 | 12.0 | 0.00 | 0.00 | 0.00 | 54 | 1017.9 |
| 20260502151854 | 53 | 36 | 4.0 | 12.0 | 0.00 | 0.00 | 0.00 | 52 | 1017.9 |
| 20260502151752 | 53 | 16 | 4.0 | 10.0 | 0.00 | 0.00 | 0.00 | 54 | 1017.9 |
| 20260502151726 | 52 | 355 | 3.0 | 10.0 | 0.00 | 0.00 | 0.00 | 57 | 1017.9 |
| 20260502151716 | 53 | 78 | 3.0 | 10.0 | 0.00 | 0.00 | 0.00 | 58 | 1017.9 |
| 20260502151502 | 52 | 51 | 3.0 | 10.0 | 0.00 | 0.00 | 0.00 | 59 | 1017.8 |
| 20260502151452 | 52 | 51 | 4.0 | 10.0 | 0.00 | 0.00 | 0.00 | 56 | 1017.9 |
| 20260502151430 | 52 | 242 | 4.0 | 10.0 | 0.00 | 0.00 | 0.00 | 57 | 1017.9 |
| 20260502151307 | 52 | 38 | 4.0 | 10.0 | 0.00 | 0.00 | 0.00 | 57 | 1018.0 |
| 20260502151047 | 52 | 22 | 4.0 | 10.0 | 0.00 | 0.00 | 0.00 | 56 | 1017.9 |
| 20260502150948 | 52 | 350 | 4.0 | 10.0 | 0.00 | 0.00 | 0.00 | 59 | 1017.9 |
| 20260502150845 | 52 | 55 | 4.0 | 10.0 | 0.00 | 0.00 | 0.00 | 59 | 1017.8 |
| 20260502150742 | 52 | 44 | 4.0 | 10.0 | 0.00 | 0.00 | 0.00 | 55 | 1017.8 |
| 20260502150638 | 53 | 25 | 4.0 | 10.0 | 0.00 | 0.00 | 0.00 | 56 | 1017.8 |
| 20260502150539 | 53 | 53 | 4.0 | 10.0 | 0.00 | 0.00 | 0.00 | 58 | 1017.7 |
| 20260502150439 | 53 | 73 | 4.0 | 10.0 | 0.00 | 0.00 | 0.00 | 57 | 1017.8 |
| 20260502150406 | 53 | 346 | 4.0 | 11.0 | 0.00 | 0.00 | 0.00 | 57 | 1017.7 |
| 20260502150234 | 53 | 94 | 4.0 | 11.0 | 0.00 | 0.00 | 0.00 | 58 | 1017.8 |
| 20260502150208 | 53 | 24 | 5.0 | 11.0 | 0.00 | 0.00 | 0.00 | 59 | 1017.7 |
| 20260502150157 | 53 | 69 | 5.0 | 11.0 | 0.00 | 0.00 | 0.00 | 61 | 1017.8 |
| 20260502140129 | 49 | 46 | 5.0 | 16.0 | 0.00 | 0.00 | 0.00 | 65 | 1017.3 |
| 20260502140117 | 49 | 21 | 5.0 | 16.0 | 0.00 | 0.00 | 0.00 | 66 | 1017.3 |
| 20260502130740 | 48 | 51 | 5.0 | 14.0 | 0.00 | 0.00 | 0.00 | 67 | 1017.0 |
| 20260502130714 | 48 | 96 | 6.0 | 15.0 | 0.00 | 0.00 | 0.00 | 66 | 1017.0 |
| 20260502130702 | 48 | 128 | 5.0 | 14.0 | 0.00 | 0.00 | 0.00 | 67 | 1016.9 |
| 20260502130432 | 48 | 51 | 6.0 | 15.0 | 0.00 | 0.00 | 0.00 | 67 | 1017.0 |
| 20260502130333 | 48 | 47 | 6.0 | 15.0 | 0.00 | 0.00 | 0.00 | 67 | 1017.0 |
| 20260502130233 | 48 | 82 | 6.0 | 15.0 | 0.00 | 0.00 | 0.00 | 69 | 1017.0 |
| 20260502130132 | 47 | 78 | 7.0 | 15.0 | 0.00 | 0.00 | 0.00 | 66 | 1017.0 |
| 20260502123754 | 46 | 34 | 7.0 | 18.0 | 0.00 | 0.00 | 0.00 | 70 | 1017.1 |
| 20260502123654 | 46 | 57 | 7.0 | 18.0 | 0.00 | 0.00 | 0.00 | 71 | 1017.0 |
| 20260502123631 | 46 | 32 | 7.0 | 18.0 | 0.00 | 0.00 | 0.00 | 69 | 1017.1 |
| 20260502123618 | 46 | 61 | 7.0 | 18.0 | 0.00 | 0.00 | 0.00 | 70 | 1017.1 |
| 20260502123354 | 46 | 61 | 7.0 | 18.0 | 0.00 | 0.00 | 0.00 | 68 | 1017.1 |
| 20260502123254 | 46 | 58 | 7.0 | 18.0 | 0.00 | 0.00 | 0.00 | 69 | 1017.0 |
| 20260502123154 | 46 | 34 | 6.0 | 18.0 | 0.00 | 0.00 | 0.00 | 69 | 1017.0 |
| 20260502123053 | 46 | 72 | 6.0 | 18.0 | 0.00 | 0.00 | 0.00 | 68 | 1017.1 |
| 20260502122953 | 46 | 43 | 6.0 | 18.0 | 0.00 | 0.00 | 0.00 | 68 | 1016.9 |
| 20260502122854 | 46 | 53 | 6.0 | 18.0 | 0.00 | 0.00 | 0.00 | 68 | 1017.0 |
| 20260502122756 | 46 | 50 | 6.0 | 20.0 | 0.00 | 0.00 | 0.00 | 69 | 1017.0 |
| 20260502122649 | 46 | 61 | 6.0 | 20.0 | 0.00 | 0.00 | 0.00 | 68 | 1016.9 |
| 20260502122549 | 46 | 57 | 6.0 | 20.0 | 0.00 | 0.00 | 0.00 | 69 | 1017.0 |
| 20260502122449 | 46 | 48 | 6.0 | 20.0 | 0.00 | 0.00 | 0.00 | 69 | 1016.9 |
| 20260502122349 | 46 | 70 | 6.0 | 20.0 | 0.00 | 0.00 | 0.00 | 69 | 1017.0 |
| 20260502122248 | 46 | 51 | 7.0 | 20.0 | 0.00 | 0.00 | 0.00 | 68 | 1017.0 |
| 20260502122143 | 46 | 74 | 6.0 | 20.0 | 0.00 | 0.00 | 0.00 | 68 | 1016.9 |
| 20260502122044 | 46 | 5 | 7.0 | 20.0 | 0.00 | 0.00 | 0.00 | 67 | 1016.9 |
| 20260502121943 | 46 | 55 | 7.0 | 20.0 | 0.00 | 0.00 | 0.00 | 67 | 1016.9 |
| 20260502121915 | 46 | 78 | 6.0 | 16.0 | 0.00 | 0.00 | 0.00 | 72 | 1016.8 |
| 20260502121904 | 46 | 63 | 6.0 | 20.0 | 0.00 | 0.00 | 0.00 | 71 | 1016.9 |
| 20260502121637 | 46 | 71 | 7.0 | 16.0 | 0.00 | 0.00 | 0.00 | 71 | 1016.9 |
| 20260502121535 | 46 | 58 | 7.0 | 16.0 | 0.00 | 0.00 | 0.00 | 69 | 1016.9 |
| 20260502121438 | 46 | 56 | 7.0 | 16.0 | 0.00 | 0.00 | 0.00 | 68 | 1016.9 |
| 20260502121335 | 46 | 73 | 7.0 | 16.0 | 0.00 | 0.00 | 0.00 | 69 | 1016.9 |
| 20260502121236 | 45 | 51 | 6.0 | 15.0 | 0.00 | 0.00 | 0.00 | 71 | 1016.9 |
| 20260502121136 | 45 | 40 | 6.0 | 15.0 | 0.00 | 0.00 | 0.00 | 71 | 1016.9 |
| 20260502121109 | 45 | 44 | 6.0 | 15.0 | 0.00 | 0.00 | 0.00 | 71 | 1016.8 |
| 20260502121058 | 45 | 41 | 6.0 | 15.0 | 0.00 | 0.00 | 0.00 | 71 | 1016.9 |
| 20260502120836 | 45 | 74 | 7.0 | 15.0 | 0.00 | 0.00 | 0.00 | 71 | 1016.8 |
| 20260502120736 | 45 | 46 | 6.0 | 15.0 | 0.00 | 0.00 | 0.00 | 71 | 1016.8 |
| 20260502120636 | 45 | 46 | 6.0 | 15.0 | 0.00 | 0.00 | 0.00 | 73 | 1016.8 |
| 20260502120535 | 44 | 74 | 6.0 | 15.0 | 0.00 | 0.00 | 0.00 | 72 | 1016.8 |
| 20260502120435 | 44 | 68 | 6.0 | 15.0 | 0.00 | 0.00 | 0.00 | 73 | 1016.7 |
| 20260502120335 | 44 | 45 | 6.0 | 15.0 | 0.00 | 0.00 | 0.00 | 73 | 1016.7 |
| 20260502120236 | 44 | 74 | 6.0 | 15.0 | 0.00 | 0.00 | 0.00 | 74 | 1016.7 |
| 20260502120136 | 44 | 59 | 7.0 | 15.0 | 0.00 | 0.00 | 0.00 | 73 | 1016.8 |
| 20260502115723 | 44 | 74 | 6.0 | 14.0 | 0.00 | 0.00 | 0.00 | 74 | 1016.5 |
| 20260502115624 | 44 | 80 | 6.0 | 14.0 | 0.00 | 0.00 | 0.00 | 74 | 1016.7 |
| 20260502115523 | 44 | 55 | 6.0 | 14.0 | 0.00 | 0.00 | 0.00 | 74 | 1016.7 |
| 20260502115417 | 44 | 69 | 6.0 | 14.0 | 0.00 | 0.00 | 0.00 | 73 | 1016.5 |
| 20260502115351 | 44 | 33 | 6.0 | 14.0 | 0.00 | 0.00 | 0.00 | 73 | 1016.5 |
| 20260502115340 | 44 | 40 | 6.0 | 14.0 | 0.00 | 0.00 | 0.00 | 73 | 1016.5 |
| 20260502115115 | 44 | 101 | 6.0 | 18.0 | 0.00 | 0.00 | 0.00 | 72 | 1016.5 |
| 20260502115017 | 44 | 58 | 6.0 | 18.0 | 0.00 | 0.00 | 0.00 | 73 | 1016.5 |
| 20260502114918 | 44 | 69 | 6.0 | 18.0 | 0.00 | 0.00 | 0.00 | 73 | 1016.5 |
| 20260502114818 | 44 | 18 | 6.0 | 18.0 | 0.00 | 0.00 | 0.00 | 74 | 1016.4 |
| 20260502114717 | 44 | 69 | 6.0 | 18.0 | 0.00 | 0.00 | 0.00 | 74 | 1016.5 |
| 20260502114615 | 44 | 51 | 6.0 | 18.0 | 0.00 | 0.00 | 0.00 | 75 | 1016.5 |
| 20260502114549 | 44 | 355 | 6.0 | 18.0 | 0.00 | 0.00 | 0.00 | 74 | 1016.4 |
| 20260502114537 | 44 | 96 | 6.0 | 18.0 | 0.00 | 0.00 | 0.00 | 74 | 1016.5 |
| 20260502114349 | 44 | 90 | 6.0 | 18.0 | 0.00 | 0.00 | 0.00 | 75 | 1016.4 |
| 20260502114337 | 44 | 55 | 6.0 | 18.0 | 0.00 | 0.00 | 0.00 | 74 | 1016.4 |
| 20260502114115 | 44 | 71 | 6.0 | 14.0 | 0.00 | 0.00 | 0.00 | 75 | 1016.4 |
| 20260502114016 | 44 | 59 | 6.0 | 14.0 | 0.00 | 0.00 | 0.00 | 74 | 1016.4 |
| 20260502113917 | 44 | 55 | 5.0 | 12.0 | 0.00 | 0.00 | 0.00 | 75 | 1016.4 |
| 20260502113817 | 44 | 59 | 5.0 | 12.0 | 0.00 | 0.00 | 0.00 | 75 | 1016.5 |
| 20260502113711 | 44 | 57 | 5.0 | 15.0 | 0.00 | 0.00 | 0.00 | 76 | 1016.5 |
| 20260502113611 | 43 | 70 | 5.0 | 15.0 | 0.00 | 0.00 | 0.00 | 76 | 1016.5 |
| 20260502113510 | 43 | 67 | 5.0 | 15.0 | 0.00 | 0.00 | 0.00 | 77 | 1016.5 |
| 20260502113410 | 43 | 84 | 5.0 | 15.0 | 0.00 | 0.00 | 0.00 | 76 | 1016.4 |
| 20260502113311 | 43 | 57 | 5.0 | 15.0 | 0.00 | 0.00 | 0.00 | 77 | 1016.4 |
| 20260502113211 | 43 | 15 | 5.0 | 15.0 | 0.00 | 0.00 | 0.00 | 76 | 1016.4 |
| 20260502113109 | 43 | 63 | 5.0 | 15.0 | 0.00 | 0.00 | 0.00 | 76 | 1016.5 |
| 20260502113012 | 43 | 67 | 5.0 | 15.0 | 0.00 | 0.00 | 0.00 | 76 | 1016.4 |
| 20260502112909 | 43 | 0 | 5.0 | 15.0 | 0.00 | 0.00 | 0.00 | 76 | 1016.4 |
| 20260502112810 | 43 | 67 | 5.0 | 15.0 | 0.00 | 0.00 | 0.00 | 76 | 1016.4 |
| 20260502112709 | 43 | 53 | 5.0 | 14.0 | 0.00 | 0.00 | 0.00 | 77 | 1016.4 |
| 20260502112610 | 43 | 88 | 5.0 | 14.0 | 0.00 | 0.00 | 0.00 | 77 | 1016.4 |
| 20260502112504 | 42 | 63 | 5.0 | 14.0 | 0.00 | 0.00 | 0.00 | 77 | 1016.4 |
| 20260502112403 | 42 | 22 | 5.0 | 16.0 | 0.00 | 0.00 | 0.00 | 77 | 1016.3 |
| 20260502112306 | 42 | 48 | 5.0 | 16.0 | 0.00 | 0.00 | 0.00 | 77 | 1016.2 |
| 20260502112205 | 42 | 65 | 5.0 | 16.0 | 0.00 | 0.00 | 0.00 | 77 | 1016.2 |
| 20260502112130 | 42 | 26 | 5.0 | 16.0 | 0.00 | 0.00 | 0.00 | 79 | 1016.1 |
| 20260502112121 | 42 | 69 | 5.0 | 16.0 | 0.00 | 0.00 | 0.00 | 78 | 1016.2 |
| 20260502111929 | 42 | 75 | 5.0 | 16.0 | 0.00 | 0.00 | 0.00 | 79 | 1016.1 |
| 20260502111919 | 42 | 52 | 5.0 | 16.0 | 0.00 | 0.00 | 0.00 | 78 | 1016.2 |
| 20260502111658 | 43 | 38 | 6.0 | 17.0 | 0.00 | 0.00 | 0.00 | 78 | 1016.1 |
| 20260502111559 | 43 | 71 | 6.0 | 17.0 | 0.00 | 0.00 | 0.00 | 78 | 1016.0 |
| 20260502111453 | 43 | 38 | 6.0 | 17.0 | 0.00 | 0.00 | 0.00 | 77 | 1016.0 |
| 20260502111352 | 43 | 71 | 6.0 | 17.0 | 0.00 | 0.00 | 0.00 | 77 | 1016.1 |
| 20260502111325 | 43 | 24 | 6.0 | 17.0 | 0.00 | 0.00 | 0.00 | 77 | 1016.0 |
| 20260502111313 | 43 | 42 | 6.0 | 17.0 | 0.00 | 0.00 | 0.00 | 77 | 1016.0 |
| 20260502111052 | 43 | 76 | 6.0 | 17.0 | 0.00 | 0.00 | 0.00 | 76 | 1015.9 |
| 20260502110951 | 43 | 99 | 6.0 | 17.0 | 0.00 | 0.00 | 0.00 | 77 | 1015.9 |
| 20260502110852 | 43 | 57 | 6.0 | 17.0 | 0.00 | 0.00 | 0.00 | 76 | 1015.9 |
| 20260502110752 | 43 | 69 | 6.0 | 17.0 | 0.00 | 0.00 | 0.00 | 76 | 1016.0 |
| 20260502110652 | 43 | 40 | 6.0 | 16.0 | 0.00 | 0.00 | 0.00 | 77 | 1016.0 |
| 20260502110552 | 43 | 69 | 6.0 | 16.0 | 0.00 | 0.00 | 0.00 | 77 | 1015.9 |
| 20260502110452 | 43 | 30 | 6.0 | 16.0 | 0.00 | 0.00 | 0.00 | 77 | 1016.0 |
| 20260502110352 | 42 | 46 | 6.0 | 14.0 | 0.00 | 0.00 | 0.00 | 77 | 1016.0 |
| 20260502110252 | 42 | 65 | 6.0 | 14.0 | 0.00 | 0.00 | 0.00 | 77 | 1016.0 |
| 20260502110151 | 42 | 36 | 6.0 | 14.0 | 0.00 | 0.00 | 0.00 | 77 | 1016.0 |
| 20260502110051 | 42 | 44 | 5.0 | 14.0 | 0.00 | 0.00 | 0.00 | 78 | 1016.1 |
| 20260502105951 | 42 | 56 | 5.0 | 13.0 | 0.00 | 0.00 | 0.00 | 78 | 1016.0 |
| 20260502105853 | 42 | 69 | 5.0 | 13.0 | 0.00 | 0.00 | 0.00 | 78 | 1016.0 |
| 20260502105741 | 42 | 61 | 5.0 | 13.0 | 0.00 | 0.00 | 0.00 | 78 | 1016.0 |
| 20260502105643 | 42 | 60 | 5.0 | 12.0 | 0.00 | 0.00 | 0.00 | 78 | 1016.0 |
| 20260502105543 | 42 | 55 | 5.0 | 12.0 | 0.00 | 0.00 | 0.00 | 78 | 1015.9 |
| 20260502105442 | 42 | 61 | 5.0 | 12.0 | 0.00 | 0.00 | 0.00 | 78 | 1016.0 |
| 20260502105342 | 42 | 48 | 5.0 | 13.0 | 0.00 | 0.00 | 0.00 | 78 | 1015.9 |
| 20260502105242 | 42 | 63 | 5.0 | 13.0 | 0.00 | 0.00 | 0.00 | 78 | 1016.0 |
| 20260502105144 | 42 | 64 | 5.0 | 13.0 | 0.00 | 0.00 | 0.00 | 78 | 1016.0 |
| 20260502105041 | 42 | 51 | 5.0 | 13.0 | 0.00 | 0.00 | 0.00 | 78 | 1016.0 |
| 20260502104942 | 42 | 68 | 5.0 | 13.0 | 0.00 | 0.00 | 0.00 | 78 | 1016.0 |
| 20260502104841 | 42 | 64 | 5.0 | 13.0 | 0.00 | 0.00 | 0.00 | 77 | 1016.0 |
| 20260502104742 | 42 | 32 | 5.0 | 13.0 | 0.00 | 0.00 | 0.00 | 77 | 1016.0 |
| 20260502104642 | 42 | 61 | 5.0 | 13.0 | 0.00 | 0.00 | 0.00 | 77 | 1016.0 |
| 20260502104543 | 42 | 38 | 5.0 | 13.0 | 0.00 | 0.00 | 0.00 | 78 | 1016.0 |
| 20260502104443 | 42 | 66 | 5.0 | 13.0 | 0.00 | 0.00 | 0.00 | 78 | 1016.0 |
| 20260502104341 | 42 | 18 | 5.0 | 12.0 | 0.00 | 0.00 | 0.00 | 77 | 1016.1 |
| 20260502104242 | 42 | 78 | 5.0 | 13.0 | 0.00 | 0.00 | 0.00 | 77 | 1016.1 |
| 20260502104219 | 42 | 46 | 5.0 | 13.0 | 0.00 | 0.00 | 0.00 | 77 | 1016.2 |
| 20260502104206 | 42 | 40 | 5.0 | 13.0 | 0.00 | 0.00 | 0.00 | 77 | 1016.1 |
| 20260502104016 | 42 | 84 | 5.0 | 13.0 | 0.00 | 0.00 | 0.00 | 77 | 1016.1 |
| 20260502104003 | 42 | 33 | 5.0 | 13.0 | 0.00 | 0.00 | 0.00 | 77 | 1016.1 |
| 20260502103819 | 43 | 49 | 6.0 | 13.0 | 0.00 | 0.00 | 0.00 | 77 | 1016.1 |
| 20260502103806 | 43 | 71 | 5.0 | 13.0 | 0.00 | 0.00 | 0.00 | 77 | 1016.1 |
| 20260502103541 | 43 | 52 | 6.0 | 13.0 | 0.00 | 0.00 | 0.00 | 76 | 1016.0 |
| 20260502103441 | 43 | 57 | 6.0 | 13.0 | 0.00 | 0.00 | 0.00 | 76 | 1016.0 |
| 20260502103342 | 43 | 57 | 5.0 | 13.0 | 0.00 | 0.00 | 0.00 | 76 | 1016.0 |
| 20260502103243 | 43 | 36 | 6.0 | 13.0 | 0.00 | 0.00 | 0.00 | 76 | 1016.0 |
| 20260502103138 | 43 | 48 | 5.0 | 13.0 | 0.00 | 0.00 | 0.00 | 76 | 1016.1 |
| 20260502103038 | 43 | 51 | 5.0 | 12.0 | 0.00 | 0.00 | 0.00 | 76 | 1016.1 |
| 20260502102939 | 43 | 49 | 5.0 | 12.0 | 0.00 | 0.00 | 0.00 | 76 | 1016.1 |
| 20260502102837 | 43 | 68 | 5.0 | 12.0 | 0.00 | 0.00 | 0.00 | 76 | 1016.2 |
| 20260502102738 | 43 | 47 | 5.0 | 12.0 | 0.00 | 0.00 | 0.00 | 77 | 1016.2 |
| 20260502102639 | 43 | 32 | 5.0 | 12.0 | 0.00 | 0.00 | 0.00 | 76 | 1016.2 |
| 20260502102539 | 43 | 52 | 5.0 | 12.0 | 0.00 | 0.00 | 0.00 | 76 | 1016.2 |
| 20260502102434 | 43 | 80 | 5.0 | 12.0 | 0.00 | 0.00 | 0.00 | 76 | 1016.2 |
| 20260502102406 | 43 | 68 | 5.0 | 12.0 | 0.00 | 0.00 | 0.00 | 76 | 1016.1 |
| 20260502102235 | 43 | 69 | 5.0 | 12.0 | 0.00 | 0.00 | 0.00 | 76 | 1016.1 |
| 20260502102134 | 43 | 51 | 5.0 | 12.0 | 0.00 | 0.00 | 0.00 | 76 | 1016.1 |
| 20260502102033 | 43 | 38 | 5.0 | 12.0 | 0.00 | 0.00 | 0.00 | 76 | 1016.0 |
| 20260502101951 | 43 | 84 | 4.0 | 12.0 | 0.00 | 0.00 | 0.00 | 76 | 1016.0 |
| 20260502101938 | 43 | 85 | 5.0 | 12.0 | 0.00 | 0.00 | 0.00 | 77 | 1016.1 |
| 20260502101916 | 43 | 28 | 5.0 | 12.0 | 0.00 | 0.00 | 0.00 | 76 | 1016.0 |
| 20260502101635 | 43 | 41 | 4.0 | 11.0 | 0.00 | 0.00 | 0.00 | 77 | 1015.9 |
| 20260502101533 | 43 | 64 | 4.0 | 11.0 | 0.00 | 0.00 | 0.00 | 77 | 1015.9 |
| 20260502101434 | 43 | 76 | 4.0 | 11.0 | 0.00 | 0.00 | 0.00 | 77 | 1016.0 |
| 20260502101333 | 43 | 49 | 4.0 | 11.0 | 0.00 | 0.00 | 0.00 | 77 | 1016.0 |
| 20260502101305 | 43 | 66 | 4.0 | 13.0 | 0.00 | 0.00 | 0.00 | 77 | 1016.1 |
| 20260502101255 | 43 | 39 | 4.0 | 13.0 | 0.00 | 0.00 | 0.00 | 77 | 1016.0 |
| 20260502101035 | 43 | 35 | 4.0 | 13.0 | 0.00 | 0.00 | 0.00 | 77 | 1016.1 |
| 20260502100934 | 43 | 56 | 4.0 | 13.0 | 0.00 | 0.00 | 0.00 | 77 | 1016.1 |
| 20260502100833 | 43 | 28 | 4.0 | 14.0 | 0.00 | 0.00 | 0.00 | 76 | 1016.1 |
| 20260502100733 | 43 | 40 | 4.0 | 14.0 | 0.00 | 0.00 | 0.00 | 76 | 1016.1 |
| 20260502100634 | 43 | 85 | 4.0 | 14.0 | 0.00 | 0.00 | 0.00 | 76 | 1016.0 |
| 20260502100534 | 43 | 39 | 4.0 | 14.0 | 0.00 | 0.00 | 0.00 | 76 | 1016.0 |
| 20260502100434 | 43 | 57 | 5.0 | 14.0 | 0.00 | 0.00 | 0.00 | 76 | 1016.0 |
| 20260502100410 | 43 | 49 | 5.0 | 14.0 | 0.00 | 0.00 | 0.00 | 76 | 1015.9 |
| 20260502100358 | 43 | 13 | 5.0 | 14.0 | 0.00 | 0.00 | 0.00 | 76 | 1016.0 |
| 20260502100133 | 43 | 65 | 5.0 | 14.0 | 0.00 | 0.00 | 0.00 | 76 | 1015.9 |
| 20260502091505 | 44 | 76 | 5.0 | 13.0 | 0.00 | 0.00 | 0.00 | 74 | 1015.8 |
| 20260502091405 | 44 | 28 | 5.0 | 13.0 | 0.00 | 0.00 | 0.00 | 74 | 1015.7 |
| 20260502091303 | 44 | 61 | 5.0 | 14.0 | 0.00 | 0.00 | 0.00 | 74 | 1015.7 |
| 20260502091218 | 44 | 50 | 5.0 | 14.0 | 0.00 | 0.00 | 0.00 | 74 | 1015.7 |
| 20260502091213 | 44 | 63 | 5.0 | 14.0 | 0.00 | 0.00 | 0.00 | 74 | 1015.6 |
| 20260502091200 | 44 | 17 | 5.0 | 14.0 | 0.00 | 0.00 | 0.00 | 74 | 1015.7 |
| 20260502091137 | 44 | 67 | 5.0 | 14.0 | 0.00 | 0.00 | 0.00 | 75 | 1015.7 |
| 20260502090753 | 44 | 62 | 6.0 | 14.0 | 0.00 | 0.00 | 0.00 | 74 | 1015.6 |
| 20260502090651 | 44 | 60 | 6.0 | 14.0 | 0.00 | 0.00 | 0.00 | 74 | 1015.6 |
| 20260502090552 | 44 | 62 | 6.0 | 14.0 | 0.00 | 0.00 | 0.00 | 74 | 1015.6 |
| 20260502090452 | 44 | 34 | 5.0 | 14.0 | 0.00 | 0.00 | 0.00 | 74 | 1015.6 |
| 20260502090351 | 44 | 30 | 5.0 | 14.0 | 0.00 | 0.00 | 0.00 | 74 | 1015.6 |
| 20260502090251 | 44 | 52 | 5.0 | 14.0 | 0.00 | 0.00 | 0.00 | 74 | 1015.7 |
| 20260502090151 | 44 | 61 | 5.0 | 14.0 | 0.00 | 0.00 | 0.00 | 74 | 1015.7 |
| 20260502071506 | 45 | 54 | 7.0 | 19.0 | 0.00 | 0.00 | 0.00 | 69 | 1016.7 |
| 20260502071359 | 45 | 67 | 7.0 | 19.0 | 0.00 | 0.00 | 0.00 | 70 | 1016.7 |
| 20260502071258 | 45 | 36 | 7.0 | 19.0 | 0.00 | 0.00 | 0.00 | 69 | 1016.7 |
| 20260502071200 | 45 | 71 | 7.0 | 19.0 | 0.00 | 0.00 | 0.00 | 69 | 1016.8 |
| 20260502071100 | 45 | 59 | 7.0 | 19.0 | 0.00 | 0.00 | 0.00 | 69 | 1016.7 |
| 20260502071000 | 45 | 51 | 7.0 | 19.0 | 0.00 | 0.00 | 0.00 | 69 | 1016.7 |
| 20260502070850 | 45 | 59 | 7.0 | 17.0 | 0.00 | 0.00 | 0.00 | 70 | 1016.7 |
| 20260502070821 | 45 | 21 | 8.0 | 17.0 | 0.00 | 0.00 | 0.00 | 70 | 1016.7 |
| 20260502070812 | 45 | 61 | 7.0 | 17.0 | 0.00 | 0.00 | 0.00 | 69 | 1016.7 |
| 20260502070622 | 45 | 16 | 8.0 | 17.0 | 0.00 | 0.00 | 0.00 | 68 | 1016.7 |
| 20260502070611 | 45 | 59 | 8.0 | 17.0 | 0.00 | 0.00 | 0.00 | 69 | 1016.7 |
| 20260502070416 | 45 | 33 | 8.0 | 17.0 | 0.00 | 0.00 | 0.00 | 69 | 1016.8 |
| 20260502070406 | 45 | 68 | 8.0 | 17.0 | 0.00 | 0.00 | 0.00 | 69 | 1016.8 |
| 20260502070144 | 45 | 33 | 8.0 | 17.0 | 0.00 | 0.00 | 0.00 | 69 | 1016.7 |
| 20260502070118 | 45 | 66 | 8.0 | 17.0 | 0.00 | 0.00 | 0.00 | 69 | 1016.9 |
| 20260502070106 | 45 | 69 | 8.0 | 17.0 | 0.00 | 0.00 | 0.00 | 70 | 1016.8 |
| 20260502065838 | 45 | 10 | 8.0 | 17.0 | 0.00 | 0.00 | 0.00 | 67 | 1016.9 |
| 20260502065738 | 45 | 36 | 8.0 | 17.0 | 0.00 | 0.00 | 0.00 | 69 | 1016.9 |
| 20260502065638 | 45 | 65 | 8.0 | 17.0 | 0.00 | 0.00 | 0.00 | 68 | 1016.8 |
| 20260502065537 | 45 | 53 | 8.0 | 17.0 | 0.00 | 0.00 | 0.00 | 67 | 1016.8 |
| 20260502065438 | 45 | 17 | 8.0 | 17.0 | 0.00 | 0.00 | 0.00 | 68 | 1016.8 |
| 20260502065324 | 45 | 55 | 8.0 | 15.0 | 0.00 | 0.00 | 0.00 | 69 | 1016.7 |
| 20260502065224 | 45 | 45 | 7.0 | 15.0 | 0.00 | 0.00 | 0.00 | 68 | 1016.8 |
| 20260502065124 | 45 | 42 | 7.0 | 15.0 | 0.00 | 0.00 | 0.00 | 68 | 1016.7 |
| 20260502065025 | 45 | 63 | 7.0 | 15.0 | 0.00 | 0.00 | 0.00 | 69 | 1016.7 |
| 20260502064923 | 45 | 60 | 7.0 | 15.0 | 0.00 | 0.00 | 0.00 | 68 | 1016.7 |
| 20260502064849 | 45 | 54 | 7.0 | 15.0 | 0.00 | 0.00 | 0.00 | 68 | 1016.7 |
| 20260502064839 | 45 | 15 | 7.0 | 15.0 | 0.00 | 0.00 | 0.00 | 68 | 1016.8 |
| 20260502064618 | 45 | 76 | 7.0 | 15.0 | 0.00 | 0.00 | 0.00 | 68 | 1016.8 |
| 20260502064517 | 45 | 56 | 6.0 | 15.0 | 0.00 | 0.00 | 0.00 | 68 | 1016.8 |
| 20260502064418 | 45 | 62 | 6.0 | 17.0 | 0.00 | 0.00 | 0.00 | 68 | 1016.9 |
| 20260502064312 | 45 | 66 | 6.0 | 17.0 | 0.00 | 0.00 | 0.00 | 67 | 1016.8 |
| 20260502064212 | 45 | 60 | 7.0 | 17.0 | 0.00 | 0.00 | 0.00 | 67 | 1016.8 |
| 20260502064113 | 46 | 54 | 7.0 | 17.0 | 0.00 | 0.00 | 0.00 | 67 | 1016.8 |
| 20260502064012 | 46 | 60 | 7.0 | 18.0 | 0.00 | 0.00 | 0.00 | 68 | 1016.8 |
| 20260502063912 | 46 | 62 | 7.0 | 18.0 | 0.00 | 0.00 | 0.00 | 68 | 1016.8 |
| 20260502063802 | 46 | 44 | 7.0 | 18.0 | 0.00 | 0.00 | 0.00 | 67 | 1016.8 |
| 20260502063702 | 46 | 39 | 7.0 | 18.0 | 0.00 | 0.00 | 0.00 | 66 | 1016.8 |
| 20260502063602 | 46 | 36 | 7.0 | 18.0 | 0.00 | 0.00 | 0.00 | 67 | 1016.9 |
| 20260502063500 | 46 | 48 | 7.0 | 18.0 | 0.00 | 0.00 | 0.00 | 66 | 1016.8 |
| 20260502063430 | 46 | 41 | 6.0 | 18.0 | 0.00 | 0.00 | 0.00 | 66 | 1016.8 |
| 20260502063420 | 46 | 20 | 7.0 | 18.0 | 0.00 | 0.00 | 0.00 | 66 | 1016.8 |
| 20260502063156 | 46 | 54 | 7.0 | 18.0 | 0.00 | 0.00 | 0.00 | 66 | 1016.8 |
| 20260502063057 | 46 | 34 | 6.0 | 18.0 | 0.00 | 0.00 | 0.00 | 67 | 1016.9 |
| 20260502062956 | 46 | 50 | 6.0 | 15.0 | 0.00 | 0.00 | 0.00 | 66 | 1016.8 |
| 20260502062856 | 46 | 60 | 7.0 | 15.0 | 0.00 | 0.00 | 0.00 | 66 | 1016.8 |
| 20260502062750 | 46 | 57 | 6.0 | 15.0 | 0.00 | 0.00 | 0.00 | 66 | 1016.8 |
| 20260502062650 | 46 | 64 | 6.0 | 15.0 | 0.00 | 0.00 | 0.00 | 67 | 1016.7 |
| 20260502062550 | 46 | 50 | 7.0 | 15.0 | 0.00 | 0.00 | 0.00 | 67 | 1016.7 |
| 20260502062451 | 46 | 62 | 7.0 | 15.0 | 0.00 | 0.00 | 0.00 | 67 | 1016.8 |
| 20260502062350 | 46 | 71 | 7.0 | 15.0 | 0.00 | 0.00 | 0.00 | 66 | 1016.7 |
| 20260502062241 | 46 | 65 | 6.0 | 15.0 | 0.00 | 0.00 | 0.00 | 67 | 1016.9 |
| 20260502062138 | 46 | 59 | 7.0 | 14.0 | 0.00 | 0.00 | 0.00 | 66 | 1016.9 |
| 20260502062037 | 46 | 35 | 7.0 | 14.0 | 0.00 | 0.00 | 0.00 | 65 | 1016.8 |
| 20260502061938 | 46 | 96 | 7.0 | 18.0 | 0.00 | 0.00 | 0.00 | 65 | 1016.8 |
| 20260502061837 | 46 | 42 | 7.0 | 20.0 | 0.00 | 0.00 | 0.00 | 66 | 1016.8 |
| 20260502061808 | 46 | 42 | 7.0 | 20.0 | 0.00 | 0.00 | 0.00 | 66 | 1016.8 |
| 20260502061757 | 46 | 30 | 7.0 | 20.0 | 0.00 | 0.00 | 0.00 | 66 | 1016.8 |
| 20260502061538 | 46 | 61 | 7.0 | 20.0 | 0.00 | 0.00 | 0.00 | 66 | 1016.8 |
| 20260502061438 | 46 | 51 | 7.0 | 20.0 | 0.00 | 0.00 | 0.00 | 66 | 1016.8 |
| 20260502061418 | 46 | 63 | 7.0 | 20.0 | 0.00 | 0.00 | 0.00 | 66 | 1016.7 |
| 20260502061352 | 46 | 57 | 7.0 | 20.0 | 0.00 | 0.00 | 0.00 | 65 | 1016.7 |
| 20260502061337 | 46 | 43 | 6.0 | 20.0 | 0.00 | 0.00 | 0.00 | 66 | 1016.7 |
| 20260502061316 | 46 | 59 | 7.0 | 20.0 | 0.00 | 0.00 | 0.00 | 66 | 1016.7 |
| 20260502061010 | 46 | 59 | 7.0 | 17.0 | 0.00 | 0.00 | 0.00 | 66 | 1016.8 |
| 20260502061000 | 46 | 32 | 7.0 | 20.0 | 0.00 | 0.00 | 0.00 | 66 | 1016.7 |
| 20260502060812 | 46 | 38 | 7.0 | 18.0 | 0.00 | 0.00 | 0.00 | 66 | 1016.7 |
| 20260502060801 | 46 | 56 | 7.0 | 17.0 | 0.00 | 0.00 | 0.00 | 66 | 1016.7 |
| 20260502060537 | 46 | 40 | 7.0 | 18.0 | 0.00 | 0.00 | 0.00 | 66 | 1016.8 |
| 20260502060438 | 46 | 73 | 7.0 | 18.0 | 0.00 | 0.00 | 0.00 | 66 | 1016.8 |
| 20260502060338 | 46 | 47 | 7.0 | 18.0 | 0.00 | 0.00 | 0.00 | 65 | 1016.8 |
| 20260502060238 | 46 | 49 | 7.0 | 18.0 | 0.00 | 0.00 | 0.00 | 65 | 1016.8 |
| 20260502060138 | 46 | 40 | 7.0 | 18.0 | 0.00 | 0.00 | 0.00 | 65 | 1016.8 |
| 20260502060035 | 46 | 52 | 7.0 | 18.0 | 0.00 | 0.00 | 0.00 | 66 | 1016.8 |
| 20260502055934 | 46 | 52 | 7.0 | 18.0 | 0.00 | 0.00 | 0.00 | 66 | 1016.9 |
| 20260502055835 | 46 | 55 | 7.0 | 18.0 | 0.00 | 0.00 | 0.00 | 66 | 1016.9 |
| 20260502055808 | 46 | 26 | 7.0 | 16.0 | 0.00 | 0.00 | 0.00 | 66 | 1016.8 |
| 20260502055757 | 46 | 36 | 7.0 | 18.0 | 0.00 | 0.00 | 0.00 | 67 | 1016.9 |
| 20260502055533 | 46 | 46 | 7.0 | 16.0 | 0.00 | 0.00 | 0.00 | 66 | 1016.8 |
| 20260502055434 | 46 | 63 | 7.0 | 16.0 | 0.00 | 0.00 | 0.00 | 67 | 1016.9 |
| 20260502055332 | 46 | 34 | 7.0 | 16.0 | 0.00 | 0.00 | 0.00 | 67 | 1016.9 |
| 20260502055232 | 46 | 53 | 7.0 | 16.0 | 0.00 | 0.00 | 0.00 | 66 | 1017.0 |
| 20260502055135 | 46 | 342 | 7.0 | 16.0 | 0.00 | 0.00 | 0.00 | 66 | 1017.0 |
| 20260502055045 | 46 | 46 | 7.0 | 16.0 | 0.00 | 0.00 | 0.00 | 67 | 1017.0 |
| 20260502055034 | 46 | 40 | 7.0 | 16.0 | 0.00 | 0.00 | 0.00 | 66 | 1017.0 |
| 20260502055026 | 46 | 81 | 7.0 | 15.0 | 0.00 | 0.00 | 0.00 | 67 | 1016.9 |
| 20260502055006 | 46 | 64 | 7.0 | 16.0 | 0.00 | 0.00 | 0.00 | 66 | 1017.0 |
| 20260502054628 | 46 | 46 | 7.0 | 15.0 | 0.00 | 0.00 | 0.00 | 66 | 1017.0 |
| 20260502054527 | 46 | 55 | 7.0 | 15.0 | 0.00 | 0.00 | 0.00 | 66 | 1017.0 |
| 20260502054428 | 46 | 15 | 7.0 | 15.0 | 0.00 | 0.00 | 0.00 | 65 | 1016.9 |
| 20260502054322 | 46 | 36 | 7.0 | 15.0 | 0.00 | 0.00 | 0.00 | 65 | 1016.9 |
| 20260502054222 | 46 | 69 | 7.0 | 16.0 | 0.00 | 0.00 | 0.00 | 66 | 1016.9 |
| 20260502054122 | 46 | 62 | 7.0 | 16.0 | 0.00 | 0.00 | 0.00 | 66 | 1017.0 |
| 20260502054024 | 46 | 28 | 6.0 | 16.0 | 0.00 | 0.00 | 0.00 | 66 | 1017.0 |
| 20260502054017 | 46 | 355 | 6.0 | 16.0 | 0.00 | 0.00 | 0.00 | 67 | 1017.1 |
| 20260502053958 | 46 | 57 | 6.0 | 16.0 | 0.00 | 0.00 | 0.00 | 66 | 1017.1 |
| 20260502053942 | 46 | 53 | 6.0 | 16.0 | 0.00 | 0.00 | 0.00 | 66 | 1017.1 |
| 20260502053615 | 46 | 49 | 6.0 | 16.0 | 0.00 | 0.00 | 0.00 | 66 | 1017.0 |
| 20260502053556 | 46 | 59 | 6.0 | 13.0 | 0.00 | 0.00 | 0.00 | 66 | 1017.1 |
| 20260502053551 | 46 | 67 | 6.0 | 13.0 | 0.00 | 0.00 | 0.00 | 66 | 1017.1 |
| 20260502053545 | 46 | 44 | 6.0 | 13.0 | 0.00 | 0.00 | 0.00 | 66 | 1017.1 |
| 20260502053531 | 46 | 55 | 6.0 | 16.0 | 0.00 | 0.00 | 0.00 | 66 | 1017.1 |
| 20260502053512 | 46 | 54 | 6.0 | 16.0 | 0.00 | 0.00 | 0.00 | 67 | 1017.0 |
| 20260502053029 | 46 | 63 | 6.0 | 12.0 | 0.00 | 0.00 | 0.00 | 67 | 1017.0 |
| 20260502053024 | 46 | 49 | 5.0 | 14.0 | 0.00 | 0.00 | 0.00 | 67 | 1017.1 |
| 20260502053013 | 46 | 34 | 6.0 | 13.0 | 0.00 | 0.00 | 0.00 | 66 | 1017.1 |
| 20260502052952 | 46 | 68 | 5.0 | 12.0 | 0.00 | 0.00 | 0.00 | 66 | 1017.1 |
| 20260502052611 | 46 | 53 | 6.0 | 14.0 | 0.00 | 0.00 | 0.00 | 67 | 1017.1 |
| 20260502052511 | 46 | 150 | 5.0 | 14.0 | 0.00 | 0.00 | 0.00 | 66 | 1017.0 |
| 20260502052410 | 46 | 34 | 6.0 | 14.0 | 0.00 | 0.00 | 0.00 | 66 | 1017.1 |
| 20260502052341 | 46 | 75 | 6.0 | 14.0 | 0.00 | 0.00 | 0.00 | 67 | 1016.9 |
| 20260502052324 | 46 | 78 | 6.0 | 14.0 | 0.00 | 0.00 | 0.00 | 66 | 1017.0 |
| 20260502052255 | 46 | 61 | 6.0 | 14.0 | 0.00 | 0.00 | 0.00 | 67 | 1016.9 |
| 20260502052008 | 46 | 36 | 6.0 | 14.0 | 0.00 | 0.00 | 0.00 | 66 | 1016.9 |
| 20260502051906 | 46 | 57 | 6.0 | 14.0 | 0.00 | 0.00 | 0.00 | 66 | 1017.0 |
| 20260502051808 | 46 | 47 | 6.0 | 13.0 | 0.00 | 0.00 | 0.00 | 67 | 1016.9 |
| 20260502051739 | 46 | 55 | 6.0 | 13.0 | 0.00 | 0.00 | 0.00 | 65 | 1017.0 |
| 20260502051728 | 46 | 44 | 6.0 | 13.0 | 0.00 | 0.00 | 0.00 | 66 | 1016.9 |
| 20260502051506 | 46 | 41 | 6.0 | 13.0 | 0.00 | 0.00 | 0.00 | 65 | 1017.0 |
| 20260502051407 | 46 | 74 | 6.0 | 13.0 | 0.00 | 0.00 | 0.00 | 65 | 1016.9 |
| 20260502051306 | 46 | 34 | 6.0 | 13.0 | 0.00 | 0.00 | 0.00 | 66 | 1016.9 |
| 20260502051207 | 46 | 45 | 6.0 | 13.0 | 0.00 | 0.00 | 0.00 | 65 | 1016.9 |
| 20260502051108 | 46 | 42 | 6.0 | 13.0 | 0.00 | 0.00 | 0.00 | 65 | 1016.9 |
| 20260502051008 | 46 | 65 | 6.0 | 14.0 | 0.00 | 0.00 | 0.00 | 65 | 1016.8 |
| 20260502050908 | 46 | 58 | 6.0 | 17.0 | 0.00 | 0.00 | 0.00 | 65 | 1016.8 |
| 20260502050808 | 46 | 61 | 6.0 | 17.0 | 0.00 | 0.00 | 0.00 | 65 | 1016.8 |
| 20260502050707 | 46 | 62 | 6.0 | 17.0 | 0.00 | 0.00 | 0.00 | 65 | 1016.9 |
| 20260502050607 | 46 | 55 | 7.0 | 17.0 | 0.00 | 0.00 | 0.00 | 65 | 1016.9 |
| 20260502050508 | 46 | 57 | 7.0 | 17.0 | 0.00 | 0.00 | 0.00 | 65 | 1016.8 |
| 20260502050407 | 47 | 49 | 7.0 | 17.0 | 0.00 | 0.00 | 0.00 | 65 | 1016.8 |
| 20260502050308 | 47 | 46 | 7.0 | 17.0 | 0.00 | 0.00 | 0.00 | 64 | 1016.8 |
| 20260502050206 | 46 | 71 | 7.0 | 17.0 | 0.00 | 0.00 | 0.00 | 64 | 1016.8 |
| 20260502050106 | 46 | 31 | 7.0 | 17.0 | 0.00 | 0.00 | 0.00 | 64 | 1016.7 |
| 20260502050005 | 46 | 24 | 7.0 | 17.0 | 0.00 | 0.00 | 0.00 | 65 | 1016.8 |
| 20260502045906 | 47 | 78 | 7.0 | 15.0 | 0.00 | 0.00 | 0.00 | 64 | 1016.8 |
| 20260502045803 | 47 | 51 | 7.0 | 14.0 | 0.00 | 0.00 | 0.00 | 64 | 1016.9 |
| 20260502045704 | 47 | 36 | 7.0 | 14.0 | 0.00 | 0.00 | 0.00 | 64 | 1016.7 |
| 20260502045604 | 47 | 108 | 7.0 | 14.0 | 0.00 | 0.00 | 0.00 | 64 | 1016.7 |
| 20260502045504 | 47 | 69 | 6.0 | 14.0 | 0.00 | 0.00 | 0.00 | 64 | 1016.7 |
| 20260502045405 | 47 | 74 | 6.0 | 14.0 | 0.00 | 0.00 | 0.00 | 63 | 1016.8 |
| 20260502045333 | 47 | 58 | 6.0 | 15.0 | 0.00 | 0.00 | 0.00 | 63 | 1016.9 |
| 20260502045320 | 47 | 75 | 6.0 | 14.0 | 0.00 | 0.00 | 0.00 | 63 | 1016.8 |
| 20260502045256 | 47 | 23 | 6.0 | 13.0 | 0.00 | 0.00 | 0.00 | 64 | 1016.9 |
| 20260502045142 | 47 | 53 | 6.0 | 15.0 | 0.00 | 0.00 | 0.00 | 63 | 1016.9 |
| 20260502045136 | 47 | 63 | 6.0 | 15.0 | 0.00 | 0.00 | 0.00 | 64 | 1016.9 |
| 20260502045120 | 47 | 46 | 6.0 | 13.0 | 0.00 | 0.00 | 0.00 | 63 | 1017.0 |
| 20260502045101 | 47 | 61 | 6.0 | 13.0 | 0.00 | 0.00 | 0.00 | 63 | 1016.9 |
| 20260502044558 | 47 | 46 | 6.0 | 15.0 | 0.00 | 0.00 | 0.00 | 63 | 1016.9 |
| 20260502044516 | 47 | 19 | 7.0 | 16.0 | 0.00 | 0.00 | 0.00 | 64 | 1016.9 |
| 20260502044510 | 47 | 69 | 7.0 | 16.0 | 0.00 | 0.00 | 0.00 | 63 | 1016.9 |
| 20260502044459 | 47 | 56 | 7.0 | 16.0 | 0.00 | 0.00 | 0.00 | 63 | 1016.8 |
| 20260502044438 | 47 | 57 | 7.0 | 16.0 | 0.00 | 0.00 | 0.00 | 63 | 1016.9 |
| 20260502044058 | 47 | 38 | 7.0 | 16.0 | 0.00 | 0.00 | 0.00 | 63 | 1016.8 |
| 20260502043959 | 47 | 58 | 6.0 | 16.0 | 0.00 | 0.00 | 0.00 | 63 | 1016.9 |
| 20260502043939 | 47 | 57 | 6.0 | 16.0 | 0.00 | 0.00 | 0.00 | 63 | 1016.9 |
| 20260502043926 | 47 | 57 | 6.0 | 16.0 | 0.00 | 0.00 | 0.00 | 63 | 1016.9 |
| 20260502043659 | 47 | 46 | 6.0 | 16.0 | 0.00 | 0.00 | 0.00 | 62 | 1016.9 |
| 20260502043559 | 47 | 71 | 5.0 | 16.0 | 0.00 | 0.00 | 0.00 | 62 | 1016.9 |
| 20260502043452 | 47 | 63 | 5.0 | 13.0 | 0.00 | 0.00 | 0.00 | 63 | 1016.9 |
| 20260502043430 | 47 | 49 | 5.0 | 13.0 | 0.00 | 0.00 | 0.00 | 63 | 1017.0 |
| 20260502043419 | 47 | 44 | 5.0 | 13.0 | 0.00 | 0.00 | 0.00 | 63 | 1017.0 |
| 20260502043207 | 47 | 40 | 6.0 | 19.0 | 0.00 | 0.00 | 0.00 | 62 | 1016.9 |
| 20260502043155 | 47 | 80 | 6.0 | 13.0 | 0.00 | 0.00 | 0.00 | 63 | 1016.9 |
| 20260502043149 | 47 | 75 | 5.0 | 19.0 | 0.00 | 0.00 | 0.00 | 62 | 1016.9 |
| 20260502043128 | 47 | 60 | 6.0 | 13.0 | 0.00 | 0.00 | 0.00 | 63 | 1017.0 |
| 20260502042747 | 47 | 61 | 5.0 | 19.0 | 0.00 | 0.00 | 0.00 | 62 | 1016.9 |
| 20260502042719 | 47 | 41 | 5.0 | 19.0 | 0.00 | 0.00 | 0.00 | 62 | 1016.9 |
| 20260502042708 | 47 | 35 | 5.0 | 19.0 | 0.00 | 0.00 | 0.00 | 62 | 1016.9 |
| 20260502042440 | 47 | 50 | 6.0 | 19.0 | 0.00 | 0.00 | 0.00 | 62 | 1016.9 |
| 20260502042340 | 47 | 61 | 5.0 | 19.0 | 0.00 | 0.00 | 0.00 | 62 | 1016.9 |
| 20260502042239 | 47 | 50 | 5.0 | 19.0 | 0.00 | 0.00 | 0.00 | 62 | 1016.8 |
| 20260502042140 | 47 | 13 | 5.0 | 19.0 | 0.00 | 0.00 | 0.00 | 62 | 1016.9 |
| 20260502042102 | 47 | 48 | 5.0 | 14.0 | 0.00 | 0.00 | 0.00 | 62 | 1017.0 |
| 20260502042047 | 47 | 71 | 5.0 | 12.0 | 0.00 | 0.00 | 0.00 | 62 | 1016.9 |
| 20260502042026 | 47 | 51 | 5.0 | 12.0 | 0.00 | 0.00 | 0.00 | 63 | 1016.9 |
| 20260502041903 | 47 | 27 | 5.0 | 12.0 | 0.00 | 0.00 | 0.00 | 62 | 1016.9 |
| 20260502041639 | 47 | 19 | 5.0 | 14.0 | 0.00 | 0.00 | 0.00 | 62 | 1016.9 |
| 20260502041550 | 47 | 43 | 5.0 | 14.0 | 0.00 | 0.00 | 0.00 | 62 | 1016.9 |
| 20260502041539 | 47 | 57 | 5.0 | 14.0 | 0.00 | 0.00 | 0.00 | 62 | 1017.0 |
| 20260502041532 | 47 | 81 | 6.0 | 14.0 | 0.00 | 0.00 | 0.00 | 61 | 1016.9 |
| 20260502041514 | 47 | 80 | 5.0 | 14.0 | 0.00 | 0.00 | 0.00 | 61 | 1017.0 |
| 20260502041134 | 47 | 20 | 5.0 | 14.0 | 0.00 | 0.00 | 0.00 | 62 | 1016.9 |
| 20260502041034 | 48 | 75 | 6.0 | 14.0 | 0.00 | 0.00 | 0.00 | 62 | 1016.9 |
| 20260502040934 | 48 | 53 | 6.0 | 17.0 | 0.00 | 0.00 | 0.00 | 61 | 1016.8 |
| 20260502040834 | 48 | 65 | 6.0 | 17.0 | 0.00 | 0.00 | 0.00 | 62 | 1016.9 |
| 20260502040733 | 48 | 42 | 6.0 | 17.0 | 0.00 | 0.00 | 0.00 | 61 | 1016.8 |
| 20260502040635 | 48 | 78 | 6.0 | 17.0 | 0.00 | 0.00 | 0.00 | 61 | 1016.9 |
| 20260502040535 | 48 | 9 | 6.0 | 17.0 | 0.00 | 0.00 | 0.00 | 61 | 1016.9 |
| 20260502040435 | 48 | 38 | 6.0 | 17.0 | 0.00 | 0.00 | 0.00 | 61 | 1016.8 |
| 20260502040334 | 48 | 5 | 6.0 | 17.0 | 0.00 | 0.00 | 0.00 | 61 | 1016.9 |
| 20260502040234 | 48 | 63 | 6.0 | 17.0 | 0.00 | 0.00 | 0.00 | 61 | 1016.9 |
| 20260502040134 | 48 | 25 | 6.0 | 17.0 | 0.00 | 0.00 | 0.00 | 61 | 1016.9 |
| 20260502040034 | 48 | 71 | 6.0 | 17.0 | 0.00 | 0.00 | 0.00 | 60 | 1017.0 |
| 20260502035934 | 48 | 44 | 6.0 | 17.0 | 0.00 | 0.00 | 0.00 | 61 | 1017.0 |
| 20260502035834 | 48 | 323 | 6.0 | 15.0 | 0.00 | 0.00 | 0.00 | 60 | 1016.9 |
| 20260502035733 | 48 | 10 | 5.0 | 15.0 | 0.00 | 0.00 | 0.00 | 61 | 1017.0 |
| 20260502035634 | 48 | 15 | 5.0 | 15.0 | 0.00 | 0.00 | 0.00 | 61 | 1017.0 |
| 20260502035535 | 48 | 82 | 5.0 | 15.0 | 0.00 | 0.00 | 0.00 | 61 | 1016.9 |
| 20260502035435 | 48 | 25 | 5.0 | 15.0 | 0.00 | 0.00 | 0.00 | 60 | 1017.0 |
| 20260502035329 | 48 | 30 | 6.0 | 15.0 | 0.00 | 0.00 | 0.00 | 61 | 1016.9 |
| 20260502035229 | 48 | 43 | 5.0 | 15.0 | 0.00 | 0.00 | 0.00 | 60 | 1017.0 |
| 20260502035129 | 48 | 84 | 5.0 | 12.0 | 0.00 | 0.00 | 0.00 | 60 | 1017.0 |
| 20260502035104 | 48 | 72 | 5.0 | 16.0 | 0.00 | 0.00 | 0.00 | 60 | 1017.0 |
| 20260502035052 | 48 | 0 | 5.0 | 13.0 | 0.00 | 0.00 | 0.00 | 60 | 1017.0 |
| 20260502034829 | 48 | 338 | 5.0 | 16.0 | 0.00 | 0.00 | 0.00 | 60 | 1017.1 |
| 20260502034730 | 48 | 53 | 5.0 | 16.0 | 0.00 | 0.00 | 0.00 | 60 | 1017.1 |
| 20260502034700 | 48 | 61 | 4.0 | 16.0 | 0.00 | 0.00 | 0.00 | 60 | 1017.2 |
| 20260502034649 | 48 | 46 | 5.0 | 16.0 | 0.00 | 0.00 | 0.00 | 60 | 1017.2 |
| 20260502034427 | 48 | 58 | 5.0 | 16.0 | 0.00 | 0.00 | 0.00 | 60 | 1017.2 |
| 20260502034330 | 48 | 67 | 4.0 | 16.0 | 0.00 | 0.00 | 0.00 | 60 | 1017.2 |
| 20260502034322 | 48 | 60 | 4.0 | 13.0 | 0.00 | 0.00 | 0.00 | 60 | 1017.2 |
| 20260502034317 | 48 | 36 | 4.0 | 13.0 | 0.00 | 0.00 | 0.00 | 60 | 1017.3 |
| 20260502034257 | 48 | 61 | 4.0 | 16.0 | 0.00 | 0.00 | 0.00 | 60 | 1017.2 |
| 20260502034132 | 48 | 343 | 4.0 | 16.0 | 0.00 | 0.00 | 0.00 | 60 | 1017.3 |
| 20260502034109 | 48 | 40 | 4.0 | 16.0 | 0.00 | 0.00 | 0.00 | 60 | 1017.3 |
| 20260502033725 | 48 | 71 | 4.0 | 13.0 | 0.00 | 0.00 | 0.00 | 61 | 1017.3 |
| 20260502033626 | 48 | 15 | 4.0 | 13.0 | 0.00 | 0.00 | 0.00 | 60 | 1017.2 |
| 20260502033525 | 48 | 26 | 4.0 | 13.0 | 0.00 | 0.00 | 0.00 | 59 | 1017.2 |
| 20260502033425 | 48 | 17 | 4.0 | 13.0 | 0.00 | 0.00 | 0.00 | 59 | 1017.2 |
| 20260502033400 | 48 | 64 | 4.0 | 13.0 | 0.00 | 0.00 | 0.00 | 59 | 1017.4 |
| 20260502033350 | 48 | 51 | 4.0 | 13.0 | 0.00 | 0.00 | 0.00 | 59 | 1017.3 |
| 20260502033127 | 48 | 67 | 4.0 | 13.0 | 0.00 | 0.00 | 0.00 | 59 | 1017.4 |
| 20260502033026 | 48 | 23 | 4.0 | 11.0 | 0.00 | 0.00 | 0.00 | 59 | 1017.4 |
| 20260502032925 | 48 | 28 | 4.0 | 11.0 | 0.00 | 0.00 | 0.00 | 59 | 1017.4 |
| 20260502032855 | 48 | 63 | 5.0 | 15.0 | 0.00 | 0.00 | 0.00 | 59 | 1017.5 |
| 20260502032845 | 48 | 31 | 5.0 | 15.0 | 0.00 | 0.00 | 0.00 | 59 | 1017.4 |
| 20260502032625 | 48 | 318 | 5.0 | 15.0 | 0.00 | 0.00 | 0.00 | 58 | 1017.5 |
| 20260502032526 | 48 | 84 | 5.0 | 15.0 | 0.00 | 0.00 | 0.00 | 58 | 1017.5 |
| 20260502032425 | 48 | 52 | 5.0 | 15.0 | 0.00 | 0.00 | 0.00 | 58 | 1017.5 |
| 20260502032325 | 48 | 25 | 5.0 | 15.0 | 0.00 | 0.00 | 0.00 | 58 | 1017.4 |
| 20260502032225 | 48 | 98 | 5.0 | 15.0 | 0.00 | 0.00 | 0.00 | 58 | 1017.4 |
| 20260502032127 | 48 | 29 | 5.0 | 15.0 | 0.00 | 0.00 | 0.00 | 58 | 1017.6 |
| 20260502032023 | 48 | 61 | 5.0 | 15.0 | 0.00 | 0.00 | 0.00 | 58 | 1017.4 |
| 20260502031922 | 48 | 74 | 6.0 | 15.0 | 0.00 | 0.00 | 0.00 | 58 | 1017.4 |
| 20260502031822 | 48 | 20 | 5.0 | 14.0 | 0.00 | 0.00 | 0.00 | 58 | 1017.5 |
| 20260502031722 | 48 | 92 | 5.0 | 14.0 | 0.00 | 0.00 | 0.00 | 58 | 1017.5 |
| 20260502031622 | 48 | 80 | 5.0 | 13.0 | 0.00 | 0.00 | 0.00 | 58 | 1017.4 |
| 20260502031523 | 49 | 0 | 5.0 | 13.0 | 0.00 | 0.00 | 0.00 | 58 | 1017.4 |
| 20260502031422 | 49 | 44 | 5.0 | 13.0 | 0.00 | 0.00 | 0.00 | 58 | 1017.5 |
| 20260502031317 | 48 | 13 | 5.0 | 13.0 | 0.00 | 0.00 | 0.00 | 58 | 1017.5 |
| 20260502031217 | 48 | 59 | 5.0 | 13.0 | 0.00 | 0.00 | 0.00 | 58 | 1017.4 |
| 20260502031118 | 49 | 19 | 5.0 | 13.0 | 0.00 | 0.00 | 0.00 | 57 | 1017.5 |
| 20260502031018 | 49 | 39 | 5.0 | 13.0 | 0.00 | 0.00 | 0.00 | 57 | 1017.4 |
| 20260502030917 | 49 | 5 | 4.0 | 13.0 | 0.00 | 0.00 | 0.00 | 57 | 1017.4 |
| 20260502030858 | 49 | 46 | 4.0 | 13.0 | 0.00 | 0.00 | 0.00 | 58 | 1017.5 |
| 20260502030844 | 49 | 32 | 4.0 | 13.0 | 0.00 | 0.00 | 0.00 | 57 | 1017.4 |
| 20260502030617 | 49 | 74 | 4.0 | 16.0 | 0.00 | 0.00 | 0.00 | 58 | 1017.5 |
| 20260502030518 | 49 | 49 | 4.0 | 16.0 | 0.00 | 0.00 | 0.00 | 57 | 1017.4 |
| 20260502030419 | 49 | 22 | 4.0 | 16.0 | 0.00 | 0.00 | 0.00 | 57 | 1017.4 |
| 20260502030317 | 49 | 46 | 4.0 | 16.0 | 0.00 | 0.00 | 0.00 | 57 | 1017.5 |
| 20260502030217 | 49 | 90 | 4.0 | 16.0 | 0.00 | 0.00 | 0.00 | 57 | 1017.5 |
| 20260502030119 | 49 | 80 | 4.0 | 16.0 | 0.00 | 0.00 | 0.00 | 57 | 1017.5 |
| 20260502030017 | 49 | 35 | 4.0 | 16.0 | 0.00 | 0.00 | 0.00 | 57 | 1017.4 |
| 20260502025917 | 49 | 61 | 4.0 | 16.0 | 0.00 | 0.00 | 0.00 | 57 | 1017.4 |
| 20260502025816 | 49 | 11 | 4.0 | 16.0 | 0.00 | 0.00 | 0.00 | 57 | 1017.3 |
| 20260502025715 | 49 | 38 | 4.0 | 16.0 | 0.00 | 0.00 | 0.00 | 57 | 1017.3 |
| 20260502025616 | 49 | 57 | 4.0 | 11.0 | 0.00 | 0.00 | 0.00 | 58 | 1017.3 |